Observation data for Lake Alan Henry on 11/17/2019      Previous  Date       Current Mesonet Observations  Soil Data  Daily Summary Page  Observations in Plain Language
KAHS 170600Z 24008KT 10/05 A2996 RMK A01 T00960048  RH  072%=      5-min Rain = 0
KAHS 170601Z 23007KT 10/05 A2996 RMK A01 T00960048  RH  072%=      5-min Rain = 0
KAHS 170602Z 23008KT 10/05 A2996 RMK A01 T00960048  RH  072%=      5-min Rain = 0
KAHS 170603Z 23007KT 10/05 A2996 RMK A01 T00980048  RH  071%=      5-min Rain = 0
KAHS 170604Z 23007KT 10/05 A2996 RMK A01 T00980048  RH  071%=      5-min Rain = 0
KAHS 170605Z 23007KT 10/05 A2996 RMK A01 T00990048  RH  071%=      5-min Rain = 0
KAHS 170606Z 23007KT 10/05 A2996 RMK A01 T00990048  RH  070%=      5-min Rain = 0
KAHS 170607Z 23007KT 10/05 A2996 RMK A01 T00990048  RH  070%=      5-min Rain = 0
KAHS 170608Z 23006KT 10/05 A2996 RMK A01 T00990048  RH  070%=      5-min Rain = 0
KAHS 170609Z 23008KT 10/05 A2997 RMK A01 T00990048  RH  070%=      5-min Rain = 0
KAHS 170610Z 23009KT 10/05 A2997 RMK A01 T01000048  RH  070%=      5-min Rain = 0
KAHS 170611Z 23007KT 10/05 A2997 RMK A01 T01010047  RH  069%=      5-min Rain = 0
KAHS 170612Z 23008KT 10/05 A2997 RMK A01 T01010047  RH  069%=      5-min Rain = 0
KAHS 170613Z 23009KT 10/05 A2997 RMK A01 T01020047  RH  069%=      5-min Rain = 0
KAHS 170614Z 23008KT 10/05 A2997 RMK A01 T01030047  RH  068%=      5-min Rain = 0
KAHS 170615Z 23008KT 10/05 A2997 RMK A01 T01030047  RH  068%=      5-min Rain = 0
KAHS 170616Z 23007KT 10/05 A2997 RMK A01 T01030046  RH  068%=      5-min Rain = 0
KAHS 170617Z 24006KT 10/05 A2997 RMK A01 T01030046  RH  068%=      5-min Rain = 0
KAHS 170618Z 24006KT 10/05 A2997 RMK A01 T01020046  RH  068%=      5-min Rain = 0
KAHS 170619Z 24006KT 10/05 A2997 RMK A01 T01010046  RH  069%=      5-min Rain = 0
KAHS 170620Z 24006KT 10/05 A2997 RMK A01 T01010046  RH  069%=      5-min Rain = 0
KAHS 170621Z 25006KT 10/05 A2997 RMK A01 T01000045  RH  069%=      5-min Rain = 0
KAHS 170622Z 24007KT 10/05 A2997 RMK A01 T00990045  RH  069%=      5-min Rain = 0
KAHS 170623Z 25006KT 10/05 A2997 RMK A01 T00990045  RH  069%=      5-min Rain = 0
KAHS 170624Z 25007KT 10/04 A2997 RMK A01 T00970044  RH  069%=      5-min Rain = 0
KAHS 170625Z 25006KT 10/04 A2997 RMK A01 T00960044  RH  070%=      5-min Rain = 0
KAHS 170626Z 25006KT 10/04 A2997 RMK A01 T00950044  RH  070%=      5-min Rain = 0
KAHS 170627Z 24006KT 10/04 A2997 RMK A01 T00950044  RH  071%=      5-min Rain = 0
KAHS 170628Z 24006KT 09/04 A2997 RMK A01 T00940043  RH  071%=      5-min Rain = 0
KAHS 170629Z 25006KT 09/04 A2997 RMK A01 T00930044  RH  071%=      5-min Rain = 0
KAHS 170630Z 24007KT 09/04 A2997 RMK A01 T00920043  RH  072%=      5-min Rain = 0
KAHS 170631Z 24007KT 09/04 A2997 RMK A01 T00920044  RH  072%=      5-min Rain = 0
KAHS 170632Z 24007KT 09/05 A2997 RMK A01 T00930045  RH  072%=      5-min Rain = 0
KAHS 170633Z 24007KT 09/04 A2997 RMK A01 T00930044  RH  072%=      5-min Rain = 0
KAHS 170634Z 24007KT 09/04 A2997 RMK A01 T00920044  RH  072%=      5-min Rain = 0
KAHS 170635Z 24007KT 09/04 A2997 RMK A01 T00920044  RH  072%=      5-min Rain = 0
KAHS 170636Z 24006KT 09/04 A2997 RMK A01 T00920044  RH  072%=      5-min Rain = 0
KAHS 170637Z 24007KT 09/04 A2997 RMK A01 T00910044  RH  072%=      5-min Rain = 0
KAHS 170638Z 24007KT 09/04 A2997 RMK A01 T00900044  RH  073%=      5-min Rain = 0
KAHS 170639Z 24007KT 09/04 A2997 RMK A01 T00900044  RH  073%=      5-min Rain = 0
KAHS 170640Z 24008KT 09/05 A2997 RMK A01 T00900045  RH  073%=      5-min Rain = 0
KAHS 170641Z 24008KT 09/05 A2996 RMK A01 T00920045  RH  073%=      5-min Rain = 0
KAHS 170642Z 24007KT 09/05 A2997 RMK A01 T00920045  RH  072%=      5-min Rain = 0
KAHS 170643Z 24008KT 09/05 A2997 RMK A01 T00920045  RH  073%=      5-min Rain = 0
KAHS 170644Z 24007KT 09/05 A2997 RMK A01 T00910045  RH  073%=      5-min Rain = 0
KAHS 170645Z 24007KT 09/05 A2997 RMK A01 T00910045  RH  073%=      5-min Rain = 0
KAHS 170646Z 24007KT 09/05 A2997 RMK A01 T00910045  RH  073%=      5-min Rain = 0
KAHS 170647Z 24008KT 09/05 A2997 RMK A01 T00910046  RH  073%=      5-min Rain = 0
KAHS 170648Z 23007KT 09/05 A2997 RMK A01 T00920046  RH  073%=      5-min Rain = 0
KAHS 170649Z 24007KT 09/05 A2997 RMK A01 T00920045  RH  072%=      5-min Rain = 0
KAHS 170650Z 24007KT 09/05 A2997 RMK A01 T00920045  RH  073%=      5-min Rain = 0
KAHS 170651Z 24009KT 09/05 A2997 RMK A01 T00920046  RH  073%=      5-min Rain = 0
KAHS 170652Z 24007KT 09/05 A2997 RMK A01 T00930046  RH  072%=      5-min Rain = 0
KAHS 170653Z 24007KT 09/05 A2997 RMK A01 T00930045  RH  072%=      5-min Rain = 0
KAHS 170654Z 24007KT 09/05 A2997 RMK A01 T00930045  RH  072%=      5-min Rain = 0
KAHS 170655Z 24007KT 09/05 A2997 RMK A01 T00920046  RH  073%=      5-min Rain = 0
KAHS 170656Z 24007KT 09/05 A2997 RMK A01 T00920046  RH  073%=      5-min Rain = 0
KAHS 170657Z 24007KT 09/05 A2997 RMK A01 T00910046  RH  073%=      5-min Rain = 0
KAHS 170658Z 24007KT 09/05 A2997 RMK A01 T00910045  RH  073%=      5-min Rain = 0
KAHS 170659Z 25006KT 09/05 A2997 RMK A01 T00910045  RH  073%=      5-min Rain = 0
KAHS 170700Z 25007KT 09/05 A2997 RMK A01 T00900045  RH  074%=      5-min Rain = 0
KAHS 170701Z 25007KT 09/05 A2997 RMK A01 T00900046  RH  074%=      5-min Rain = 0
KAHS 170702Z 25007KT 09/05 A2997 RMK A01 T00900046  RH  074%=      5-min Rain = 0
KAHS 170703Z 25007KT 09/05 A2997 RMK A01 T00900045  RH  074%=      5-min Rain = 0
KAHS 170704Z 25007KT 09/05 A2997 RMK A01 T00900045  RH  074%=      5-min Rain = 0
KAHS 170705Z 25006KT 09/05 A2997 RMK A01 T00890045  RH  074%=      5-min Rain = 0
KAHS 170706Z 25006KT 09/05 A2997 RMK A01 T00890045  RH  074%=      5-min Rain = 0
KAHS 170707Z 24006KT 09/05 A2997 RMK A01 T00890045  RH  074%=      5-min Rain = 0
KAHS 170708Z 24006KT 09/05 A2997 RMK A01 T00890046  RH  074%=      5-min Rain = 0
KAHS 170709Z 24006KT 09/05 A2997 RMK A01 T00890046  RH  074%=      5-min Rain = 0
KAHS 170710Z 23006KT 09/05 A2997 RMK A01 T00900045  RH  074%=      5-min Rain = 0
KAHS 170711Z 24007KT 09/05 A2997 RMK A01 T00890045  RH  074%=      5-min Rain = 0
KAHS 170712Z 23007KT 09/05 A2997 RMK A01 T00890045  RH  074%=      5-min Rain = 0
KAHS 170713Z 23007KT 09/05 A2997 RMK A01 T00890045  RH  074%=      5-min Rain = 0
KAHS 170714Z 23007KT 09/05 A2997 RMK A01 T00890045  RH  074%=      5-min Rain = 0
KAHS 170715Z 23007KT 09/05 A2997 RMK A01 T00900046  RH  074%=      5-min Rain = 0
KAHS 170716Z 23006KT 09/05 A2997 RMK A01 T00900045  RH  074%=      5-min Rain = 0
KAHS 170717Z 23007KT 09/05 A2997 RMK A01 T00890045  RH  074%=      5-min Rain = 0
KAHS 170718Z 23007KT 09/05 A2997 RMK A01 T00890045  RH  074%=      5-min Rain = 0
KAHS 170719Z 23007KT 09/05 A2997 RMK A01 T00890045  RH  074%=      5-min Rain = 0
KAHS 170720Z 23008KT 09/05 A2997 RMK A01 T00890046  RH  074%=      5-min Rain = 0
KAHS 170721Z 23007KT 09/05 A2997 RMK A01 T00890046  RH  074%=      5-min Rain = 0
KAHS 170722Z 23007KT 09/05 A2997 RMK A01 T00900046  RH  074%=      5-min Rain = 0
KAHS 170723Z 23007KT 09/05 A2997 RMK A01 T00900046  RH  074%=      5-min Rain = 0
KAHS 170724Z 23007KT 09/05 A2997 RMK A01 T00900046  RH  074%=      5-min Rain = 0
KAHS 170725Z 23007KT 09/05 A2997 RMK A01 T00900046  RH  074%=      5-min Rain = 0
KAHS 170726Z 23008KT 09/05 A2997 RMK A01 T00900046  RH  074%=      5-min Rain = 0
KAHS 170727Z 23007KT 09/05 A2997 RMK A01 T00900046  RH  074%=      5-min Rain = 0
KAHS 170728Z 23007KT 09/05 A2997 RMK A01 T00900046  RH  074%=      5-min Rain = 0
KAHS 170729Z 23008KT 09/05 A2997 RMK A01 T00900046  RH  074%=      5-min Rain = 0
KAHS 170730Z 23007KT 09/05 A2997 RMK A01 T00900046  RH  074%=      5-min Rain = 0
KAHS 170731Z 23007KT 09/05 A2997 RMK A01 T00900046  RH  074%=      5-min Rain = 0
KAHS 170732Z 23007KT 09/05 A2997 RMK A01 T00890046  RH  074%=      5-min Rain = 0
KAHS 170733Z 23008KT 09/05 A2997 RMK A01 T00890046  RH  075%=      5-min Rain = 0
KAHS 170734Z 24008KT 09/05 A2996 RMK A01 T00900047  RH  074%=      5-min Rain = 0
KAHS 170735Z 24008KT 09/05 A2996 RMK A01 T00910047  RH  074%=      5-min Rain = 0
KAHS 170736Z 24007KT 09/05 A2996 RMK A01 T00910047  RH  074%=      5-min Rain = 0
KAHS 170737Z 24007KT 09/05 A2996 RMK A01 T00910047  RH  074%=      5-min Rain = 0
KAHS 170738Z 24006KT 09/05 A2996 RMK A01 T00910046  RH  074%=      5-min Rain = 0
KAHS 170739Z 23007KT 09/05 A2996 RMK A01 T00900046  RH  074%=      5-min Rain = 0
KAHS 170740Z 24006KT 09/05 A2996 RMK A01 T00900047  RH  074%=      5-min Rain = 0
KAHS 170741Z 24007KT 09/05 A2996 RMK A01 T00900046  RH  074%=      5-min Rain = 0
KAHS 170742Z 24007KT 09/05 A2996 RMK A01 T00900046  RH  074%=      5-min Rain = 0
KAHS 170743Z 24008KT 09/05 A2996 RMK A01 T00900046  RH  074%=      5-min Rain = 0
KAHS 170744Z 24007KT 09/05 A2996 RMK A01 T00900046  RH  074%=      5-min Rain = 0
KAHS 170745Z 24007KT 09/05 A2996 RMK A01 T00900046  RH  074%=      5-min Rain = 0
KAHS 170746Z 24007KT 09/05 A2996 RMK A01 T00900046  RH  074%=      5-min Rain = 0
KAHS 170747Z 25007KT 09/05 A2997 RMK A01 T00890046  RH  074%=      5-min Rain = 0
KAHS 170748Z 25007KT 09/05 A2997 RMK A01 T00900046  RH  074%=      5-min Rain = 0
KAHS 170749Z 24008KT 09/05 A2996 RMK A01 T00900046  RH  074%=      5-min Rain = 0
KAHS 170750Z 24007KT 09/05 A2996 RMK A01 T00900046  RH  074%=      5-min Rain = 0
KAHS 170751Z 24008KT 09/05 A2996 RMK A01 T00890046  RH  074%=      5-min Rain = 0
KAHS 170752Z 24007KT 09/05 A2996 RMK A01 T00890046  RH  074%=      5-min Rain = 0
KAHS 170753Z 24007KT 09/05 A2996 RMK A01 T00890045  RH  074%=      5-min Rain = 0
KAHS 170754Z 24006KT 09/05 A2996 RMK A01 T00880045  RH  074%=      5-min Rain = 0
KAHS 170755Z 24007KT 09/05 A2996 RMK A01 T00880045  RH  075%=      5-min Rain = 0
KAHS 170756Z 24007KT 09/05 A2996 RMK A01 T00880046  RH  075%=      5-min Rain = 0
KAHS 170757Z 24007KT 09/05 A2996 RMK A01 T00880046  RH  075%=      5-min Rain = 0
KAHS 170758Z 24007KT 09/05 A2996 RMK A01 T00880046  RH  074%=      5-min Rain = 0
KAHS 170759Z 24008KT 09/05 A2996 RMK A01 T00880045  RH  074%=      5-min Rain = 0
KAHS 170800Z 24008KT 09/05 A2996 RMK A01 T00880045  RH  074%=      5-min Rain = 0
KAHS 170801Z 24008KT 09/05 A2996 RMK A01 T00890046  RH  074%=      5-min Rain = 0
KAHS 170802Z 24007KT 09/05 A2996 RMK A01 T00890045  RH  074%=      5-min Rain = 0
KAHS 170803Z 24008KT 09/05 A2997 RMK A01 T00880045  RH  074%=      5-min Rain = 0
KAHS 170804Z 24007KT 09/05 A2997 RMK A01 T00890046  RH  074%=      5-min Rain = 0
KAHS 170805Z 24007KT 09/05 A2997 RMK A01 T00890046  RH  074%=      5-min Rain = 0
KAHS 170806Z 24007KT 09/05 A2997 RMK A01 T00890046  RH  074%=      5-min Rain = 0
KAHS 170807Z 24008KT 09/05 A2997 RMK A01 T00890046  RH  074%=      5-min Rain = 0
KAHS 170808Z 24008KT 09/05 A2997 RMK A01 T00900046  RH  074%=      5-min Rain = 0
KAHS 170809Z 24008KT 09/05 A2996 RMK A01 T00910047  RH  074%=      5-min Rain = 0
KAHS 170810Z 24008KT 09/05 A2996 RMK A01 T00920047  RH  073%=      5-min Rain = 0
KAHS 170811Z 24006KT 09/05 A2996 RMK A01 T00920046  RH  073%=      5-min Rain = 0
KAHS 170812Z 24007KT 09/05 A2996 RMK A01 T00910046  RH  073%=      5-min Rain = 0
KAHS 170813Z 24007KT 09/05 A2996 RMK A01 T00910047  RH  074%=      5-min Rain = 0
KAHS 170814Z 24006KT 09/05 A2996 RMK A01 T00910046  RH  074%=      5-min Rain = 0
KAHS 170815Z 24006KT 09/05 A2996 RMK A01 T00900046  RH  074%=      5-min Rain = 0
KAHS 170816Z 24005KT 09/05 A2996 RMK A01 T00890046  RH  074%=      5-min Rain = 0
KAHS 170817Z 24005KT 09/05 A2996 RMK A01 T00880045  RH  074%=      5-min Rain = 0
KAHS 170818Z 24005KT 09/05 A2996 RMK A01 T00870045  RH  075%=      5-min Rain = 0
KAHS 170819Z 24004KT 09/04 A2996 RMK A01 T00860044  RH  075%=      5-min Rain = 0
KAHS 170820Z 25004KT 09/05 A2996 RMK A01 T00850045  RH  076%=      5-min Rain = 0
KAHS 170821Z 25004KT 09/05 A2996 RMK A01 T00850045  RH  076%=      5-min Rain = 0
KAHS 170822Z 26004KT 08/04 A2996 RMK A01 T00840044  RH  076%=      5-min Rain = 0
KAHS 170823Z 26004KT 08/04 A2996 RMK A01 T00840044  RH  076%=      5-min Rain = 0
KAHS 170824Z 26004KT 08/04 A2996 RMK A01 T00830044  RH  076%=      5-min Rain = 0
KAHS 170825Z 26004KT 08/04 A2996 RMK A01 T00830044  RH  076%=      5-min Rain = 0
KAHS 170826Z 26004KT 08/04 A2996 RMK A01 T00820043  RH  076%=      5-min Rain = 0
KAHS 170827Z 26004KT 08/04 A2996 RMK A01 T00820043  RH  076%=      5-min Rain = 0
KAHS 170828Z 26004KT 08/04 A2996 RMK A01 T00800041  RH  076%=      5-min Rain = 0
KAHS 170829Z 25003KT 08/04 A2996 RMK A01 T00780040  RH  077%=      5-min Rain = 0
KAHS 170830Z 26004KT 08/04 A2996 RMK A01 T00780041  RH  078%=      5-min Rain = 0
KAHS 170831Z 25004KT 08/04 A2996 RMK A01 T00780042  RH  078%=      5-min Rain = 0
KAHS 170832Z 25004KT 08/04 A2996 RMK A01 T00780042  RH  078%=      5-min Rain = 0
KAHS 170833Z 25004KT 08/04 A2996 RMK A01 T00770041  RH  078%=      5-min Rain = 0
KAHS 170834Z 25004KT 08/04 A2996 RMK A01 T00770041  RH  078%=      5-min Rain = 0
KAHS 170835Z 26003KT 08/04 A2996 RMK A01 T00770041  RH  078%=      5-min Rain = 0
KAHS 170836Z 28003KT 08/04 A2996 RMK A01 T00770041  RH  078%=      5-min Rain = 0
KAHS 170837Z 29004KT 08/04 A2996 RMK A01 T00760040  RH  078%=      5-min Rain = 0
KAHS 170838Z 29004KT 08/04 A2996 RMK A01 T00750039  RH  078%=      5-min Rain = 0
KAHS 170839Z 29004KT 07/04 A2996 RMK A01 T00740039  RH  078%=      5-min Rain = 0
KAHS 170840Z 29004KT 07/04 A2996 RMK A01 T00740039  RH  079%=      5-min Rain = 0
KAHS 170841Z 28004KT 07/04 A2996 RMK A01 T00730039  RH  079%=      5-min Rain = 0
KAHS 170842Z 27005KT 07/04 A2996 RMK A01 T00730040  RH  079%=      5-min Rain = 0
KAHS 170843Z 26005KT 07/04 A2996 RMK A01 T00730040  RH  079%=      5-min Rain = 0
KAHS 170844Z 26006KT 07/04 A2996 RMK A01 T00740041  RH  079%=      5-min Rain = 0
KAHS 170845Z 25006KT 07/04 A2996 RMK A01 T00740040  RH  079%=      5-min Rain = 0
KAHS 170846Z 25006KT 07/04 A2996 RMK A01 T00740040  RH  079%=      5-min Rain = 0
KAHS 170847Z 24006KT 07/04 A2996 RMK A01 T00730039  RH  079%=      5-min Rain = 0
KAHS 170848Z 24005KT 07/04 A2996 RMK A01 T00710036  RH  078%=      5-min Rain = 0
KAHS 170849Z 24006KT 07/03 A2996 RMK A01 T00690034  RH  079%=      5-min Rain = 0
KAHS 170850Z 24006KT 07/03 A2996 RMK A01 T00670034  RH  080%=      5-min Rain = 0
KAHS 170851Z 25006KT 07/04 A2996 RMK A01 T00660035  RH  080%=      5-min Rain = 0
KAHS 170852Z 25007KT 07/04 A2996 RMK A01 T00650036  RH  081%=      5-min Rain = 0
KAHS 170853Z 26007KT 07/04 A2996 RMK A01 T00660037  RH  082%=      5-min Rain = 0
KAHS 170854Z 26007KT 07/04 A2996 RMK A01 T00670039  RH  083%=      5-min Rain = 0
KAHS 170855Z 26007KT 07/04 A2996 RMK A01 T00670040  RH  083%=      5-min Rain = 0
KAHS 170856Z 26008KT 07/04 A2996 RMK A01 T00680040  RH  082%=      5-min Rain = 0
KAHS 170857Z 26008KT 07/04 A2996 RMK A01 T00680040  RH  082%=      5-min Rain = 0
KAHS 170858Z 26008KT 07/04 A2996 RMK A01 T00680040  RH  082%=      5-min Rain = 0
KAHS 170859Z 26007KT 07/04 A2996 RMK A01 T00690041  RH  082%=      5-min Rain = 0
KAHS 170900Z 26007KT 07/04 A2996 RMK A01 T00690041  RH  082%=      5-min Rain = 0
KAHS 170901Z 26007KT 07/04 A2996 RMK A01 T00690041  RH  082%=      5-min Rain = 0
KAHS 170902Z 26007KT 07/04 A2996 RMK A01 T00690041  RH  082%=      5-min Rain = 0
KAHS 170903Z 26007KT 07/04 A2996 RMK A01 T00690041  RH  082%=      5-min Rain = 0
KAHS 170904Z 26007KT 07/04 A2996 RMK A01 T00690041  RH  082%=      5-min Rain = 0
KAHS 170905Z 26007KT 07/04 A2996 RMK A01 T00700041  RH  082%=      5-min Rain = 0
KAHS 170906Z 26007KT 07/04 A2996 RMK A01 T00700041  RH  082%=      5-min Rain = 0
KAHS 170907Z 26007KT 07/04 A2995 RMK A01 T00700041  RH  082%=      5-min Rain = 0
KAHS 170908Z 26007KT 07/04 A2995 RMK A01 T00700041  RH  082%=      5-min Rain = 0
KAHS 170909Z 25007KT 07/04 A2995 RMK A01 T00700041  RH  082%=      5-min Rain = 0
KAHS 170910Z 25007KT 07/04 A2995 RMK A01 T00700041  RH  082%=      5-min Rain = 0
KAHS 170911Z 25007KT 07/04 A2995 RMK A01 T00700041  RH  082%=      5-min Rain = 0
KAHS 170912Z 25006KT 07/04 A2995 RMK A01 T00700041  RH  082%=      5-min Rain = 0
KAHS 170913Z 25006KT 07/04 A2995 RMK A01 T00700041  RH  082%=      5-min Rain = 0
KAHS 170914Z 26006KT 07/04 A2995 RMK A01 T00700041  RH  082%=      5-min Rain = 0
KAHS 170915Z 26006KT 07/04 A2995 RMK A01 T00700041  RH  082%=      5-min Rain = 0
KAHS 170916Z 26006KT 07/04 A2995 RMK A01 T00700041  RH  082%=      5-min Rain = 0
KAHS 170917Z 27006KT 07/04 A2995 RMK A01 T00690041  RH  082%=      5-min Rain = 0
KAHS 170918Z 27006KT 07/04 A2996 RMK A01 T00690040  RH  082%=      5-min Rain = 0
KAHS 170919Z 28005KT 07/04 A2996 RMK A01 T00680040  RH  082%=      5-min Rain = 0
KAHS 170920Z 28006KT 07/04 A2996 RMK A01 T00670040  RH  083%=      5-min Rain = 0
KAHS 170921Z 29006KT 07/04 A2996 RMK A01 T00660039  RH  083%=      5-min Rain = 0
KAHS 170922Z 29006KT 07/04 A2996 RMK A01 T00650039  RH  083%=      5-min Rain = 0
KAHS 170923Z 30006KT 06/04 A2996 RMK A01 T00640038  RH  083%=      5-min Rain = 0
KAHS 170924Z 30006KT 06/04 A2996 RMK A01 T00640039  RH  084%=      5-min Rain = 0
KAHS 170925Z 30006KT 06/04 A2996 RMK A01 T00640039  RH  084%=      5-min Rain = 0
KAHS 170926Z 30007KT 06/04 A2996 RMK A01 T00640040  RH  084%=      5-min Rain = 0
KAHS 170927Z 30007KT 06/04 A2996 RMK A01 T00640040  RH  084%=      5-min Rain = 0
KAHS 170928Z 29007KT 06/04 A2997 RMK A01 T00640040  RH  084%=      5-min Rain = 0
KAHS 170929Z 29007KT 07/04 A2997 RMK A01 T00650040  RH  084%=      5-min Rain = 0
KAHS 170930Z 29007KT 07/04 A2997 RMK A01 T00650040  RH  084%=      5-min Rain = 0
KAHS 170931Z 29007KT 07/04 A2997 RMK A01 T00650040  RH  084%=      5-min Rain = 0
KAHS 170932Z 30007KT 07/04 A2997 RMK A01 T00650040  RH  084%=      5-min Rain = 0
KAHS 170933Z 30007KT 07/04 A2997 RMK A01 T00650040  RH  084%=      5-min Rain = 0
KAHS 170934Z 31007KT 06/04 A2997 RMK A01 T00640039  RH  084%=      5-min Rain = 0
KAHS 170935Z 31007KT 06/04 A2997 RMK A01 T00640039  RH  084%=      5-min Rain = 0
KAHS 170936Z 32007KT 06/04 A2997 RMK A01 T00630038  RH  084%=      5-min Rain = 0
KAHS 170937Z 32007KT 06/04 A2996 RMK A01 T00620038  RH  085%=      5-min Rain = 0
KAHS 170938Z 31006KT 06/04 A2996 RMK A01 T00610037  RH  085%=      5-min Rain = 0
KAHS 170939Z 31007KT 06/04 A2996 RMK A01 T00600037  RH  085%=      5-min Rain = 0
KAHS 170940Z 31006KT 06/04 A2996 RMK A01 T00600037  RH  085%=      5-min Rain = 0
KAHS 170941Z 30006KT 06/04 A2996 RMK A01 T00590037  RH  086%=      5-min Rain = 0
KAHS 170942Z 30006KT 06/04 A2996 RMK A01 T00590038  RH  086%=      5-min Rain = 0
KAHS 170943Z 30007KT 06/04 A2996 RMK A01 T00600038  RH  086%=      5-min Rain = 0
KAHS 170944Z 29007KT 06/04 A2996 RMK A01 T00600038  RH  086%=      5-min Rain = 0
KAHS 170945Z 29006KT 06/04 A2996 RMK A01 T00600038  RH  086%=      5-min Rain = 0
KAHS 170946Z 29007KT 06/04 A2996 RMK A01 T00600038  RH  086%=      5-min Rain = 0
KAHS 170947Z 29007KT 06/04 A2996 RMK A01 T00600038  RH  086%=      5-min Rain = 0
KAHS 170948Z 29007KT 06/04 A2997 RMK A01 T00600038  RH  086%=      5-min Rain = 0
KAHS 170949Z 29007KT 06/04 A2997 RMK A01 T00600038  RH  086%=      5-min Rain = 0
KAHS 170950Z 29006KT 06/04 A2997 RMK A01 T00600038  RH  086%=      5-min Rain = 0
KAHS 170951Z 29007KT 06/04 A2997 RMK A01 T00600038  RH  086%=      5-min Rain = 0
KAHS 170952Z 29007KT 06/04 A2997 RMK A01 T00600038  RH  086%=      5-min Rain = 0
KAHS 170953Z 30007KT 06/04 A2997 RMK A01 T00590038  RH  086%=      5-min Rain = 0
KAHS 170954Z 30007KT 06/04 A2997 RMK A01 T00590038  RH  086%=      5-min Rain = 0
KAHS 170955Z 29006KT 06/04 A2997 RMK A01 T00590038  RH  086%=      5-min Rain = 0
KAHS 170956Z 29006KT 06/04 A2997 RMK A01 T00590038  RH  086%=      5-min Rain = 0
KAHS 170957Z 29006KT 06/04 A2997 RMK A01 T00590038  RH  086%=      5-min Rain = 0
KAHS 170958Z 29006KT 06/04 A2997 RMK A01 T00590038  RH  086%=      5-min Rain = 0
KAHS 170959Z 29006KT 06/04 A2997 RMK A01 T00590038  RH  086%=      5-min Rain = 0
KAHS 171000Z 29005KT 06/04 A2997 RMK A01 T00590037  RH  086%=      5-min Rain = 0
KAHS 171001Z 29005KT 06/04 A2997 RMK A01 T00580037  RH  086%=      5-min Rain = 0
KAHS 171002Z 29005KT 06/04 A2997 RMK A01 T00580037  RH  086%=      5-min Rain = 0
KAHS 171003Z 29005KT 06/04 A2997 RMK A01 T00580037  RH  086%=      5-min Rain = 0
KAHS 171004Z 29005KT 06/04 A2997 RMK A01 T00580037  RH  087%=      5-min Rain = 0
KAHS 171005Z 30006KT 06/04 A2997 RMK A01 T00570036  RH  087%=      5-min Rain = 0
KAHS 171006Z 30005KT 06/04 A2997 RMK A01 T00570036  RH  087%=      5-min Rain = 0
KAHS 171007Z 31005KT 06/04 A2997 RMK A01 T00560036  RH  087%=      5-min Rain = 0
KAHS 171008Z 31005KT 06/04 A2997 RMK A01 T00560036  RH  087%=      5-min Rain = 0
KAHS 171009Z 31005KT 06/04 A2997 RMK A01 T00560036  RH  087%=      5-min Rain = 0
KAHS 171010Z 30005KT 06/04 A2997 RMK A01 T00560037  RH  087%=      5-min Rain = 0
KAHS 171011Z 30005KT 06/04 A2997 RMK A01 T00560036  RH  087%=      5-min Rain = 0
KAHS 171012Z 30005KT 06/04 A2997 RMK A01 T00560036  RH  087%=      5-min Rain = 0
KAHS 171013Z 30005KT 06/04 A2997 RMK A01 T00560036  RH  087%=      5-min Rain = 0
KAHS 171014Z 30004KT 06/04 A2997 RMK A01 T00560036  RH  087%=      5-min Rain = 0
KAHS 171015Z 30004KT 06/04 A2997 RMK A01 T00560036  RH  087%=      5-min Rain = 0
KAHS 171016Z 30005KT 06/04 A2997 RMK A01 T00550035  RH  087%=      5-min Rain = 0
KAHS 171017Z 30005KT 06/04 A2997 RMK A01 T00550035  RH  087%=      5-min Rain = 0
KAHS 171018Z 30004KT 06/04 A2997 RMK A01 T00550035  RH  087%=      5-min Rain = 0
KAHS 171019Z 31005KT 05/03 A2997 RMK A01 T00540034  RH  087%=      5-min Rain = 0
KAHS 171020Z 31005KT 05/03 A2997 RMK A01 T00540034  RH  087%=      5-min Rain = 0
KAHS 171021Z 30005KT 05/03 A2997 RMK A01 T00530034  RH  088%=      5-min Rain = 0
KAHS 171022Z 30005KT 05/03 A2997 RMK A01 T00530034  RH  088%=      5-min Rain = 0
KAHS 171023Z 30005KT 05/03 A2997 RMK A01 T00520034  RH  088%=      5-min Rain = 0
KAHS 171024Z 30005KT 05/03 A2997 RMK A01 T00520034  RH  088%=      5-min Rain = 0
KAHS 171025Z 30004KT 05/03 A2997 RMK A01 T00520034  RH  088%=      5-min Rain = 0
KAHS 171026Z 30004KT 05/03 A2997 RMK A01 T00520034  RH  088%=      5-min Rain = 0
KAHS 171027Z 29003KT 05/03 A2997 RMK A01 T00520033  RH  088%=      5-min Rain = 0
KAHS 171028Z 29004KT 05/03 A2997 RMK A01 T00510032  RH  088%=      5-min Rain = 0
KAHS 171029Z 30004KT 05/03 A2997 RMK A01 T00500032  RH  088%=      5-min Rain = 0
KAHS 171030Z 30004KT 05/03 A2997 RMK A01 T00500031  RH  088%=      5-min Rain = 0
KAHS 171031Z 30005KT 05/03 A2997 RMK A01 T00500032  RH  088%=      5-min Rain = 0
KAHS 171032Z 30005KT 05/03 A2997 RMK A01 T00500032  RH  089%=      5-min Rain = 0
KAHS 171033Z 30005KT 05/03 A2997 RMK A01 T00500033  RH  089%=      5-min Rain = 0
KAHS 171034Z 30005KT 05/03 A2997 RMK A01 T00500034  RH  089%=      5-min Rain = 0
KAHS 171035Z 30005KT 05/04 A2998 RMK A01 T00510035  RH  089%=      5-min Rain = 0
KAHS 171036Z 30006KT 05/04 A2998 RMK A01 T00520035  RH  089%=      5-min Rain = 0
KAHS 171037Z 30006KT 05/04 A2998 RMK A01 T00520036  RH  089%=      5-min Rain = 0
KAHS 171038Z 30006KT 05/04 A2998 RMK A01 T00530036  RH  089%=      5-min Rain = 0
KAHS 171039Z 30006KT 05/04 A2998 RMK A01 T00530036  RH  088%=      5-min Rain = 0
KAHS 171040Z 30007KT 05/04 A2998 RMK A01 T00540036  RH  088%=      5-min Rain = 0
KAHS 171041Z 30007KT 06/04 A2998 RMK A01 T00550037  RH  088%=      5-min Rain = 0
KAHS 171042Z 30007KT 06/04 A2998 RMK A01 T00560037  RH  088%=      5-min Rain = 0
KAHS 171043Z 31006KT 06/04 A2998 RMK A01 T00560037  RH  088%=      5-min Rain = 0
KAHS 171044Z 31006KT 06/04 A2998 RMK A01 T00560037  RH  087%=      5-min Rain = 0
KAHS 171045Z 31006KT 06/04 A2998 RMK A01 T00560037  RH  087%=      5-min Rain = 0
KAHS 171046Z 31006KT 06/04 A2998 RMK A01 T00560037  RH  088%=      5-min Rain = 0
KAHS 171047Z 31006KT 06/04 A2998 RMK A01 T00570038  RH  088%=      5-min Rain = 0
KAHS 171048Z 31006KT 06/04 A2998 RMK A01 T00570037  RH  087%=      5-min Rain = 0
KAHS 171049Z 31006KT 06/04 A2998 RMK A01 T00560037  RH  087%=      5-min Rain = 0
KAHS 171050Z 31006KT 06/04 A2998 RMK A01 T00560037  RH  088%=      5-min Rain = 0
KAHS 171051Z 31006KT 06/04 A2999 RMK A01 T00560037  RH  088%=      5-min Rain = 0
KAHS 171052Z 32006KT 06/04 A2999 RMK A01 T00560037  RH  088%=      5-min Rain = 0
KAHS 171053Z 32007KT 06/04 A2999 RMK A01 T00560037  RH  088%=      5-min Rain = 0
KAHS 171054Z 32007KT 06/04 A2999 RMK A01 T00550036  RH  087%=      5-min Rain = 0
KAHS 171055Z 32006KT 06/04 A2999 RMK A01 T00550035  RH  087%=      5-min Rain = 0
KAHS 171056Z 32007KT 05/03 A2999 RMK A01 T00530034  RH  087%=      5-min Rain = 0
KAHS 171057Z 32006KT 05/03 A2999 RMK A01 T00520034  RH  088%=      5-min Rain = 0
KAHS 171058Z 32006KT 05/03 A2999 RMK A01 T00520034  RH  088%=      5-min Rain = 0
KAHS 171059Z 32006KT 05/03 A2999 RMK A01 T00510034  RH  088%=      5-min Rain = 0
KAHS 171100Z 32006KT 05/03 A2999 RMK A01 T00510034  RH  089%=      5-min Rain = 0
KAHS 171101Z 32006KT 05/03 A2999 RMK A01 T00500032  RH  089%=      5-min Rain = 0
KAHS 171102Z 32006KT 05/03 A2999 RMK A01 T00480031  RH  089%=      5-min Rain = 0
KAHS 171103Z 32007KT 05/03 A30 RMK A01 T00480031  RH  089%=      5-min Rain = 0
KAHS 171104Z 32007KT 05/03 A30 RMK A01 T00470031  RH  089%=      5-min Rain = 0
KAHS 171105Z 33008KT 05/03 A30 RMK A01 T00470031  RH  090%=      5-min Rain = 0
KAHS 171106Z 34008KT 05/03 A30 RMK A01 T00460031  RH  090%=      5-min Rain = 0
KAHS 171107Z 34008KT 05/03 A30 RMK A01 T00460031  RH  090%=      5-min Rain = 0
KAHS 171108Z 34008KT 05/03 A30 RMK A01 T00470032  RH  090%=      5-min Rain = 0
KAHS 171109Z 34009KT 05/03 A30 RMK A01 T00460032  RH  090%=      5-min Rain = 0
KAHS 171110Z 34008KT 05/03 A30 RMK A01 T00460032  RH  090%=      5-min Rain = 0
KAHS 171111Z 34008KT 05/03 A30 RMK A01 T00460032  RH  091%=      5-min Rain = 0
KAHS 171112Z 35007KT 05/03 A3001 RMK A01 T00460032  RH  091%=      5-min Rain = 0
KAHS 171113Z 35007KT 05/03 A30 RMK A01 T00460032  RH  091%=      5-min Rain = 0
KAHS 171114Z 35006KT 05/03 A30 RMK A01 T00450031  RH  091%=      5-min Rain = 0
KAHS 171115Z 35005KT 05/03 A30 RMK A01 T00450031  RH  091%=      5-min Rain = 0
KAHS 171116Z 35006KT 04/03 A3001 RMK A01 T00440031  RH  091%=      5-min Rain = 0
KAHS 171117Z 35006KT 04/03 A3001 RMK A01 T00440030  RH  091%=      5-min Rain = 0
KAHS 171118Z 35006KT 04/03 A3001 RMK A01 T00430030  RH  091%=      5-min Rain = 0
KAHS 171119Z 34006KT 04/03 A3001 RMK A01 T00430029  RH  091%=      5-min Rain = 0
KAHS 171120Z 35006KT 04/03 A3001 RMK A01 T00430029  RH  091%=      5-min Rain = 0
KAHS 171121Z 35007KT 04/03 A3001 RMK A01 T00420029  RH  091%=      5-min Rain = 0
KAHS 171122Z 35007KT 04/03 A3001 RMK A01 T00410029  RH  091%=      5-min Rain = 0
KAHS 171123Z 35008KT 04/03 A3001 RMK A01 T00410029  RH  092%=      5-min Rain = 0
KAHS 171124Z 36008KT 04/03 A3002 RMK A01 T00410029  RH  092%=      5-min Rain = 0
KAHS 171125Z 00009KT 04/03 A3002 RMK A01 T00410030  RH  092%=      5-min Rain = 0
KAHS 171126Z 00007KT 04/03 A3002 RMK A01 T00420030  RH  092%=      5-min Rain = 0
KAHS 171127Z 00009KT 04/03 A3002 RMK A01 T00420031  RH  092%=      5-min Rain = 0
KAHS 171128Z 00008KT 04/03 A3002 RMK A01 T00430032  RH  093%=      5-min Rain = 0
KAHS 171129Z 00007KT 04/03 A3002 RMK A01 T00430032  RH  093%=      5-min Rain = 0
KAHS 171130Z 00007KT 04/03 A3002 RMK A01 T00430032  RH  092%=      5-min Rain = 0
KAHS 171131Z 01007KT 04/03 A3002 RMK A01 T00430032  RH  092%=      5-min Rain = 0
KAHS 171132Z 01007KT 04/03 A3002 RMK A01 T00430032  RH  092%=      5-min Rain = 0
KAHS 171133Z 02006KT 04/03 A3002 RMK A01 T00430032  RH  093%=      5-min Rain = 0
KAHS 171134Z 01006KT 04/03 A3001 RMK A01 T00420031  RH  092%=      5-min Rain = 0
KAHS 171135Z 02005KT 04/03 A3001 RMK A01 T00420031  RH  092%=      5-min Rain = 0
KAHS 171136Z 02005KT 04/03 A3001 RMK A01 T00420031  RH  093%=      5-min Rain = 0
KAHS 171137Z 02005KT 04/03 A3002 RMK A01 T00420031  RH  093%=      5-min Rain = 0
KAHS 171138Z 02006KT 04/03 A3002 RMK A01 T00410030  RH  093%=      5-min Rain = 0
KAHS 171139Z 01006KT 04/03 A3002 RMK A01 T00410031  RH  093%=      5-min Rain = 0
KAHS 171140Z 01006KT 04/03 A3002 RMK A01 T00410031  RH  093%=      5-min Rain = 0
KAHS 171141Z 01006KT 04/03 A3002 RMK A01 T00410031  RH  093%=      5-min Rain = 0
KAHS 171142Z 01006KT 04/03 A3002 RMK A01 T00410031  RH  093%=      5-min Rain = 0
KAHS 171143Z 02006KT 04/03 A3002 RMK A01 T00410031  RH  093%=      5-min Rain = 0
KAHS 171144Z 01005KT 04/03 A3002 RMK A01 T00410031  RH  093%=      5-min Rain = 0
KAHS 171145Z 01005KT 04/03 A3003 RMK A01 T00410031  RH  093%=      5-min Rain = 0
KAHS 171146Z 01006KT 04/03 A3003 RMK A01 T00410031  RH  093%=      5-min Rain = 0
KAHS 171147Z 01006KT 04/03 A3003 RMK A01 T00410031  RH  093%=      5-min Rain = 0
KAHS 171148Z 02006KT 04/03 A3003 RMK A01 T00410031  RH  093%=      5-min Rain = 0
KAHS 171149Z 02006KT 04/03 A3003 RMK A01 T00410032  RH  094%=      5-min Rain = 0
KAHS 171150Z 02007KT 04/03 A3003 RMK A01 T00420033  RH  094%=      5-min Rain = 0
KAHS 171151Z 02006KT 04/03 A3003 RMK A01 T00430034  RH  094%=      5-min Rain = 0
KAHS 171152Z 02007KT 04/04 A3003 RMK A01 T00440035  RH  094%=      5-min Rain = 0
KAHS 171153Z 02007KT 05/04 A3003 RMK A01 T00450036  RH  094%=      5-min Rain = 0
KAHS 171154Z 02006KT 05/04 A3003 RMK A01 T00470037  RH  094%=      5-min Rain = 0
KAHS 171155Z 03006KT 05/04 A3003 RMK A01 T00480038  RH  093%=      5-min Rain = 0
KAHS 171156Z 03006KT 05/04 A3003 RMK A01 T00490038  RH  093%=      5-min Rain = 0
KAHS 171157Z 04006KT 05/04 A3003 RMK A01 T00500039  RH  093%=      5-min Rain = 0
KAHS 171158Z 04007KT 05/04 A3003 RMK A01 T00510039  RH  092%=      5-min Rain = 0
KAHS 171159Z 04006KT 05/04 A3003 RMK A01 T00520039  RH  091%=      5-min Rain = 0
KAHS 171200Z 04007KT 05/04 A3003 RMK A01 T00530039  RH  091%=      5-min Rain = 0
KAHS 171201Z 04006KT 05/04 A3003 RMK A01 T00540038  RH  090%=      5-min Rain = 0
KAHS 171202Z 04006KT 05/04 A3003 RMK A01 T00540037  RH  089%=      5-min Rain = 0
KAHS 171203Z 04006KT 05/04 A3003 RMK A01 T00540037  RH  088%=      5-min Rain = 0
KAHS 171204Z 03006KT 06/04 A3003 RMK A01 T00550037  RH  088%=      5-min Rain = 0
KAHS 171205Z 04005KT 06/04 A3003 RMK A01 T00560036  RH  087%=      5-min Rain = 0
KAHS 171206Z 04006KT 06/04 A3003 RMK A01 T00560035  RH  087%=      5-min Rain = 0
KAHS 171207Z 04005KT 06/03 A3003 RMK A01 T00560034  RH  086%=      5-min Rain = 0
KAHS 171208Z 04006KT 06/03 A3003 RMK A01 T00560034  RH  086%=      5-min Rain = 0
KAHS 171209Z 04006KT 06/03 A3003 RMK A01 T00550033  RH  086%=      5-min Rain = 0
KAHS 171210Z 03006KT 05/03 A3003 RMK A01 T00540033  RH  086%=      5-min Rain = 0
KAHS 171211Z 03006KT 05/03 A3003 RMK A01 T00540032  RH  086%=      5-min Rain = 0
KAHS 171212Z 03006KT 05/03 A3003 RMK A01 T00540032  RH  086%=      5-min Rain = 0
KAHS 171213Z 03006KT 05/03 A3003 RMK A01 T00530032  RH  086%=      5-min Rain = 0
KAHS 171214Z 03006KT 05/03 A3003 RMK A01 T00530032  RH  086%=      5-min Rain = 0
KAHS 171215Z 03006KT 05/03 A3003 RMK A01 T00520031  RH  086%=      5-min Rain = 0
KAHS 171216Z 03006KT 05/03 A3004 RMK A01 T00520031  RH  086%=      5-min Rain = 0
KAHS 171217Z 03005KT 05/03 A3004 RMK A01 T00520031  RH  086%=      5-min Rain = 0
KAHS 171218Z 03005KT 05/03 A3004 RMK A01 T00520031  RH  086%=      5-min Rain = 0
KAHS 171219Z 03005KT 05/03 A3004 RMK A01 T00520031  RH  086%=      5-min Rain = 0
KAHS 171220Z 03005KT 05/03 A3004 RMK A01 T00510030  RH  086%=      5-min Rain = 0
KAHS 171221Z 03005KT 05/03 A3004 RMK A01 T00510030  RH  086%=      5-min Rain = 0
KAHS 171222Z 02005KT 05/03 A3004 RMK A01 T00510030  RH  086%=      5-min Rain = 0
KAHS 171223Z 03005KT 05/03 A3004 RMK A01 T00510030  RH  086%=      5-min Rain = 0
KAHS 171224Z 03005KT 05/03 A3004 RMK A01 T00510030  RH  086%=      5-min Rain = 0
KAHS 171225Z 03004KT 05/03 A3004 RMK A01 T00510030  RH  086%=      5-min Rain = 0
KAHS 171226Z 03004KT 05/03 A3004 RMK A01 T00510030  RH  086%=      5-min Rain = 0
KAHS 171227Z 02005KT 05/03 A3004 RMK A01 T00510030  RH  086%=      5-min Rain = 0
KAHS 171228Z 03005KT 05/03 A3005 RMK A01 T00500029  RH  086%=      5-min Rain = 0
KAHS 171229Z 02005KT 05/03 A3005 RMK A01 T00500029  RH  086%=      5-min Rain = 0
KAHS 171230Z 02004KT 05/03 A3005 RMK A01 T00500028  RH  086%=      5-min Rain = 0
KAHS 171231Z 02003KT 05/03 A3005 RMK A01 T00500028  RH  086%=      5-min Rain = 0
KAHS 171232Z 02003KT 05/03 A3005 RMK A01 T00490028  RH  086%=      5-min Rain = 0
KAHS 171233Z 03003KT 05/03 A3005 RMK A01 T00490028  RH  086%=      5-min Rain = 0
KAHS 171234Z 03003KT 05/03 A3005 RMK A01 T00500028  RH  086%=      5-min Rain = 0
KAHS 171235Z 03003KT 05/03 A3005 RMK A01 T00500028  RH  086%=      5-min Rain = 0
KAHS 171236Z 03003KT 05/03 A3005 RMK A01 T00500028  RH  086%=      5-min Rain = 0
KAHS 171237Z 03003KT 05/03 A3005 RMK A01 T00500027  RH  085%=      5-min Rain = 0
KAHS 171238Z 03002KT 05/03 A3005 RMK A01 T00500027  RH  085%=      5-min Rain = 0
KAHS 171239Z 03002KT 05/03 A3005 RMK A01 T00500027  RH  085%=      5-min Rain = 0
KAHS 171240Z 03002KT 05/03 A3005 RMK A01 T00500027  RH  085%=      5-min Rain = 0
KAHS 171241Z 04002KT 05/03 A3005 RMK A01 T00500026  RH  085%=      5-min Rain = 0
KAHS 171242Z 04003KT 05/03 A3005 RMK A01 T00500027  RH  085%=      5-min Rain = 0
KAHS 171243Z 03003KT 05/03 A3005 RMK A01 T00500027  RH  085%=      5-min Rain = 0
KAHS 171244Z 03003KT 05/03 A3005 RMK A01 T00500026  RH  084%=      5-min Rain = 0
KAHS 171245Z 03002KT 05/03 A3005 RMK A01 T00500026  RH  084%=      5-min Rain = 0
KAHS 171246Z 02003KT 05/03 A3005 RMK A01 T00500026  RH  084%=      5-min Rain = 0
KAHS 171247Z 03004KT 05/03 A3005 RMK A01 T00500025  RH  084%=      5-min Rain = 0
KAHS 171248Z 01005KT 05/03 A3005 RMK A01 T00500025  RH  084%=      5-min Rain = 0
KAHS 171249Z 01004KT 05/03 A3005 RMK A01 T00500025  RH  084%=      5-min Rain = 0
KAHS 171250Z 01004KT 05/02 A3006 RMK A01 T00490023  RH  083%=      5-min Rain = 0
KAHS 171251Z 01005KT 05/02 A3006 RMK A01 T00490022  RH  083%=      5-min Rain = 0
KAHS 171252Z 00004KT 05/02 A3006 RMK A01 T00490022  RH  083%=      5-min Rain = 0
KAHS 171253Z 01005KT 05/02 A3006 RMK A01 T00480022  RH  083%=      5-min Rain = 0
KAHS 171254Z 01005KT 05/02 A3006 RMK A01 T00480021  RH  083%=      5-min Rain = 0
KAHS 171255Z 01005KT 05/02 A3006 RMK A01 T00470021  RH  083%=      5-min Rain = 0
KAHS 171256Z 01005KT 05/02 A3006 RMK A01 T00470021  RH  083%=      5-min Rain = 0
KAHS 171257Z 01005KT 05/02 A3006 RMK A01 T00480021  RH  083%=      5-min Rain = 0
KAHS 171258Z 01005KT 05/02 A3006 RMK A01 T00490022  RH  083%=      5-min Rain = 0
KAHS 171259Z 01005KT 05/02 A3006 RMK A01 T00490022  RH  083%=      5-min Rain = 0
KAHS 171300Z 01005KT 05/02 A3006 RMK A01 T00490022  RH  083%=      5-min Rain = 0
KAHS 171301Z 01006KT 05/02 A3006 RMK A01 T00500022  RH  082%=      5-min Rain = 0
KAHS 171302Z 01006KT 05/02 A3007 RMK A01 T00500022  RH  082%=      5-min Rain = 0
KAHS 171303Z 01006KT 05/02 A3007 RMK A01 T00510022  RH  082%=      5-min Rain = 0
KAHS 171304Z 01006KT 05/02 A3007 RMK A01 T00520022  RH  081%=      5-min Rain = 0
KAHS 171305Z 01006KT 05/02 A3007 RMK A01 T00520022  RH  081%=      5-min Rain = 0
KAHS 171306Z 01006KT 05/02 A3007 RMK A01 T00520022  RH  081%=      5-min Rain = 0
KAHS 171307Z 01006KT 05/02 A3007 RMK A01 T00530022  RH  080%=      5-min Rain = 0
KAHS 171308Z 01005KT 05/02 A3007 RMK A01 T00530022  RH  080%=      5-min Rain = 0
KAHS 171309Z 02006KT 05/02 A3007 RMK A01 T00530021  RH  080%=      5-min Rain = 0
KAHS 171310Z 02006KT 05/02 A3007 RMK A01 T00540022  RH  080%=      5-min Rain = 0
KAHS 171311Z 02005KT 06/02 A3007 RMK A01 T00560022  RH  079%=      5-min Rain = 0
KAHS 171312Z 02005KT 06/02 A3007 RMK A01 T00560022  RH  078%=      5-min Rain = 0
KAHS 171313Z 02005KT 06/02 A3007 RMK A01 T00570022  RH  078%=      5-min Rain = 0
KAHS 171314Z 02005KT 06/02 A3007 RMK A01 T00570021  RH  078%=      5-min Rain = 0
KAHS 171315Z 02006KT 06/02 A3008 RMK A01 T00560021  RH  078%=      5-min Rain = 0
KAHS 171316Z 02006KT 06/02 A3008 RMK A01 T00570021  RH  078%=      5-min Rain = 0
KAHS 171317Z 02005KT 06/02 A3008 RMK A01 T00570021  RH  077%=      5-min Rain = 0
KAHS 171318Z 03006KT 06/02 A3008 RMK A01 T00580021  RH  077%=      5-min Rain = 0
KAHS 171319Z 03005KT 06/02 A3008 RMK A01 T00580021  RH  077%=      5-min Rain = 0
KAHS 171320Z 02005KT 06/02 A3008 RMK A01 T00590021  RH  077%=      5-min Rain = 0
KAHS 171321Z 02005KT 06/02 A3008 RMK A01 T00590021  RH  076%=      5-min Rain = 0
KAHS 171322Z 02007KT 06/02 A3008 RMK A01 T00590021  RH  076%=      5-min Rain = 0
KAHS 171323Z 02006KT 06/02 A3008 RMK A01 T00600021  RH  076%=      5-min Rain = 0
KAHS 171324Z 02007KT 06/02 A3008 RMK A01 T00610021  RH  075%=      5-min Rain = 0
KAHS 171325Z 02007KT 06/02 A3008 RMK A01 T00620021  RH  075%=      5-min Rain = 0
KAHS 171326Z 02008KT 06/02 A3008 RMK A01 T00640022  RH  074%=      5-min Rain = 0
KAHS 171327Z 02008KT 07/02 A3008 RMK A01 T00650021  RH  073%=      5-min Rain = 0
KAHS 171328Z 03007KT 07/02 A3008 RMK A01 T00670021  RH  073%=      5-min Rain = 0
KAHS 171329Z 03008KT 07/02 A3008 RMK A01 T00680021  RH  072%=      5-min Rain = 0
KAHS 171330Z 03009KT 07/02 A3008 RMK A01 T00690021  RH  072%=      5-min Rain = 0
KAHS 171331Z 02009KT 07/02 A3008 RMK A01 T00700021  RH  071%=      5-min Rain = 0
KAHS 171332Z 03007KT 07/02 A3008 RMK A01 T00710021  RH  070%=      5-min Rain = 0
KAHS 171333Z 03008KT 07/02 A3009 RMK A01 T00710021  RH  071%=      5-min Rain = 0
KAHS 171334Z 02007KT 07/02 A3009 RMK A01 T00720021  RH  070%=      5-min Rain = 0
KAHS 171335Z 03007KT 07/02 A3009 RMK A01 T00720021  RH  070%=      5-min Rain = 0
KAHS 171336Z 03009KT 07/02 A3009 RMK A01 T00730021  RH  070%=      5-min Rain = 0
KAHS 171337Z 03007KT 07/02 A3009 RMK A01 T00730021  RH  069%=      5-min Rain = 0
KAHS 171338Z 03007KT 07/02 A3009 RMK A01 T00740021  RH  069%=      5-min Rain = 0
KAHS 171339Z 02008KT 07/02 A3009 RMK A01 T00740021  RH  069%=      5-min Rain = 0
KAHS 171340Z 03006KT 08/02 A3009 RMK A01 T00750021  RH  069%=      5-min Rain = 0
KAHS 171341Z 03007KT 08/02 A3009 RMK A01 T00750021  RH  068%=      5-min Rain = 0
KAHS 171342Z 03006KT 08/02 A3009 RMK A01 T00760021  RH  068%=      5-min Rain = 0
KAHS 171343Z 03007KT 08/02 A301 RMK A01 T00760021  RH  068%=      5-min Rain = 0
KAHS 171344Z 03008KT 08/02 A301 RMK A01 T00770020  RH  068%=      5-min Rain = 0
KAHS 171345Z 02007KT 08/02 A301 RMK A01 T00780020  RH  067%=      5-min Rain = 0
KAHS 171346Z 02008KT 08/02 A301 RMK A01 T00790020  RH  066%=      5-min Rain = 0
KAHS 171347Z 03008KT 08/02 A301 RMK A01 T00800020  RH  066%=      5-min Rain = 0
KAHS 171348Z 03009KT 08/02 A301 RMK A01 T00810020  RH  065%=      5-min Rain = 0
KAHS 171349Z 03010KT 08/02 A301 RMK A01 T00820020  RH  065%=      5-min Rain = 0
KAHS 171350Z 02009KT 08/02 A301 RMK A01 T00830020  RH  064%=      5-min Rain = 0
KAHS 171351Z 03009KT 08/02 A301 RMK A01 T00840020  RH  064%=      5-min Rain = 0
KAHS 171352Z 02009KT 09/02 A301 RMK A01 T00850020  RH  063%=      5-min Rain = 0
KAHS 171353Z 02008KT 09/02 A301 RMK A01 T00860020  RH  063%=      5-min Rain = 0
KAHS 171354Z 02010KT 09/02 A301 RMK A01 T00860020  RH  063%=      5-min Rain = 0
KAHS 171355Z 02009KT 09/02 A301 RMK A01 T00860020  RH  063%=      5-min Rain = 0
KAHS 171356Z 02008KT 09/02 A301 RMK A01 T00870020  RH  063%=      5-min Rain = 0
KAHS 171357Z 02009KT 09/02 A301 RMK A01 T00870020  RH  063%=      5-min Rain = 0
KAHS 171358Z 02010KT 09/02 A3011 RMK A01 T00880020  RH  062%=      5-min Rain = 0
KAHS 171359Z 02010KT 09/02 A3011 RMK A01 T00890020  RH  062%=      5-min Rain = 0
KAHS 171400Z 02010KT 09/02 A3011 RMK A01 T00890019  RH  061%=      5-min Rain = 0
KAHS 171401Z 02010KT 09/02 A3011 RMK A01 T00900019  RH  061%=      5-min Rain = 0
KAHS 171402Z 02011KT 09/02 A3011 RMK A01 T00900019  RH  061%=      5-min Rain = 0
KAHS 171403Z 02011G16KT 09/02 A3011 RMK A01 T00910018  RH  060%=      5-min Rain = 0
KAHS 171404Z 01010KT 09/02 A3011 RMK A01 T00920018  RH  060%=      5-min Rain = 0
KAHS 171405Z 02010KT 09/02 A3011 RMK A01 T00930019  RH  060%=      5-min Rain = 0
KAHS 171406Z 03009KT 09/02 A3011 RMK A01 T00930019  RH  060%=      5-min Rain = 0
KAHS 171407Z 02010KT 09/02 A3011 RMK A01 T00930019  RH  060%=      5-min Rain = 0
KAHS 171408Z 02008KT 09/02 A3011 RMK A01 T00940018  RH  059%=      5-min Rain = 0
KAHS 171409Z 02008KT 09/02 A3011 RMK A01 T00940020  RH  060%=      5-min Rain = 0
KAHS 171410Z 02008KT 09/02 A3011 RMK A01 T00940020  RH  060%=      5-min Rain = 0
KAHS 171411Z 03009KT 10/02 A3012 RMK A01 T00950020  RH  059%=      5-min Rain = 0
KAHS 171412Z 02009KT 10/02 A3012 RMK A01 T00950020  RH  059%=      5-min Rain = 0
KAHS 171413Z 02011KT 10/02 A3012 RMK A01 T00960020  RH  059%=      5-min Rain = 0
KAHS 171414Z 02012G17KT 10/02 A3012 RMK A01 T00960018  RH  058%=      5-min Rain = 0
KAHS 171415Z 03011KT 10/02 A3012 RMK A01 T00970019  RH  058%=      5-min Rain = 0
KAHS 171416Z 02011KT 10/02 A3012 RMK A01 T00970019  RH  058%=      5-min Rain = 0
KAHS 171417Z 03011G16KT 10/02 A3012 RMK A01 T00980019  RH  058%=      5-min Rain = 0
KAHS 171418Z 02010KT 10/02 A3012 RMK A01 T00980020  RH  058%=      5-min Rain = 0
KAHS 171419Z 02009KT 10/02 A3012 RMK A01 T00980020  RH  058%=      5-min Rain = 0
KAHS 171420Z 02012KT 10/02 A3012 RMK A01 T00990020  RH  058%=      5-min Rain = 0
KAHS 171421Z 02012KT 10/02 A3012 RMK A01 T00990018  RH  057%=      5-min Rain = 0
KAHS 171422Z 02010KT 10/02 A3012 RMK A01 T00990019  RH  058%=      5-min Rain = 0
KAHS 171423Z 02011KT 10/02 A3012 RMK A01 T00990020  RH  058%=      5-min Rain = 0
KAHS 171424Z 02012KT 10/02 A3012 RMK A01 T01000019  RH  057%=      5-min Rain = 0
KAHS 171425Z 03016KT 10/02 A3012 RMK A01 T01000019  RH  057%=      5-min Rain = 0
KAHS 171426Z 02015KT 10/02 A3012 RMK A01 T01000018  RH  057%=      5-min Rain = 0
KAHS 171427Z 03013KT 10/02 A3012 RMK A01 T01000018  RH  057%=      5-min Rain = 0
KAHS 171428Z 03012KT 10/02 A3012 RMK A01 T01010019  RH  057%=      5-min Rain = 0
KAHS 171429Z 02016KT 10/02 A3012 RMK A01 T01010019  RH  057%=      5-min Rain = 0
KAHS 171430Z 02014KT 10/02 A3012 RMK A01 T01010019  RH  056%=      5-min Rain = 0
KAHS 171431Z 03015G20KT 10/02 A3012 RMK A01 T01020019  RH  056%=      5-min Rain = 0
KAHS 171432Z 02012KT 10/02 A3012 RMK A01 T01020019  RH  056%=      5-min Rain = 0
KAHS 171433Z 03012KT 10/02 A3012 RMK A01 T01030020  RH  056%=      5-min Rain = 0
KAHS 171434Z 02011KT 10/02 A3012 RMK A01 T01030020  RH  056%=      5-min Rain = 0
KAHS 171435Z 03013KT 10/02 A3012 RMK A01 T01030020  RH  056%=      5-min Rain = 0
KAHS 171436Z 02010KT 10/02 A3012 RMK A01 T01040021  RH  056%=      5-min Rain = 0
KAHS 171437Z 02011KT 10/02 A3012 RMK A01 T01040021  RH  056%=      5-min Rain = 0
KAHS 171438Z 02014KT 11/02 A3012 RMK A01 T01050021  RH  056%=      5-min Rain = 0
KAHS 171439Z 02014KT 11/02 A3013 RMK A01 T01050020  RH  056%=      5-min Rain = 0
KAHS 171440Z 03015G20KT 11/02 A3012 RMK A01 T01050020  RH  056%=      5-min Rain = 0
KAHS 171441Z 02018KT 11/02 A3013 RMK A01 T01050019  RH  055%=      5-min Rain = 0
KAHS 171442Z 03016G21KT 11/02 A3013 RMK A01 T01050019  RH  055%=      5-min Rain = 0
KAHS 171443Z 03018KT 11/02 A3013 RMK A01 T01060019  RH  055%=      5-min Rain = 0
KAHS 171444Z 03016KT 11/02 A3012 RMK A01 T01060019  RH  055%=      5-min Rain = 0
KAHS 171445Z 03012KT 11/02 A3012 RMK A01 T01060020  RH  055%=      5-min Rain = 0
KAHS 171446Z 03015G20KT 11/02 A3013 RMK A01 T01080021  RH  055%=      5-min Rain = 0
KAHS 171447Z 03014G20KT 11/02 A3013 RMK A01 T01080021  RH  055%=      5-min Rain = 0
KAHS 171448Z 03013KT 11/02 A3013 RMK A01 T01080020  RH  055%=      5-min Rain = 0
KAHS 171449Z 04011KT 11/02 A3013 RMK A01 T01090021  RH  055%=      5-min Rain = 0
KAHS 171450Z 03018KT 11/02 A3013 RMK A01 T01100021  RH  054%=      5-min Rain = 0
KAHS 171451Z 03017KT 11/02 A3013 RMK A01 T01090019  RH  054%=      5-min Rain = 0
KAHS 171452Z 04017G22KT 11/02 A3013 RMK A01 T01090019  RH  054%=      5-min Rain = 0
KAHS 171453Z 03012KT 11/02 A3013 RMK A01 T01090020  RH  054%=      5-min Rain = 0
KAHS 171454Z 03013KT 11/02 A3013 RMK A01 T01100022  RH  054%=      5-min Rain = 0
KAHS 171455Z 03015KT 11/02 A3013 RMK A01 T01110021  RH  054%=      5-min Rain = 0
KAHS 171456Z 02015KT 11/02 A3013 RMK A01 T01110022  RH  054%=      5-min Rain = 0
KAHS 171457Z 03014KT 11/02 A3013 RMK A01 T01110021  RH  054%=      5-min Rain = 0
KAHS 171458Z 03014KT 11/02 A3013 RMK A01 T01120021  RH  054%=      5-min Rain = 0
KAHS 171459Z 03012KT 11/02 A3013 RMK A01 T01120022  RH  054%=      5-min Rain = 0
KAHS 171500Z 03012G18KT 11/02 A3013 RMK A01 T01130022  RH  054%=      5-min Rain = 0
KAHS 171501Z 04016KT 11/02 A3013 RMK A01 T01130023  RH  054%=      5-min Rain = 0
KAHS 171502Z 04013KT 11/02 A3013 RMK A01 T01140022  RH  053%=      5-min Rain = 0
KAHS 171503Z 04012G17KT 11/02 A3013 RMK A01 T01140022  RH  053%=      5-min Rain = 0
KAHS 171504Z 04017KT 11/02 A3013 RMK A01 T01140021  RH  053%=      5-min Rain = 0
KAHS 171505Z 03017KT 11/02 A3013 RMK A01 T01130021  RH  053%=      5-min Rain = 0
KAHS 171506Z 02018G23KT 11/02 A3013 RMK A01 T01130021  RH  053%=      5-min Rain = 0
KAHS 171507Z 03020KT 11/02 A3013 RMK A01 T01130020  RH  053%=      5-min Rain = 0
KAHS 171508Z 03018KT 11/02 A3013 RMK A01 T01130020  RH  053%=      5-min Rain = 0
KAHS 171509Z 04016G22KT 11/02 A3013 RMK A01 T01130021  RH  053%=      5-min Rain = 0
KAHS 171510Z 03016KT 11/02 A3013 RMK A01 T01140021  RH  053%=      5-min Rain = 0
KAHS 171511Z 03014G20KT 12/02 A3013 RMK A01 T01150022  RH  053%=      5-min Rain = 0
KAHS 171512Z 03014KT 12/02 A3013 RMK A01 T01160022  RH  053%=      5-min Rain = 0
KAHS 171513Z 03015G20KT 12/02 A3013 RMK A01 T01160021  RH  052%=      5-min Rain = 0
KAHS 171514Z 03015KT 12/02 A3013 RMK A01 T01160022  RH  052%=      5-min Rain = 0
KAHS 171515Z 03013KT 12/02 A3013 RMK A01 T01170022  RH  052%=      5-min Rain = 0
KAHS 171516Z 03015KT 12/02 A3013 RMK A01 T01170023  RH  052%=      5-min Rain = 0
KAHS 171517Z 03014KT 12/02 A3013 RMK A01 T01170022  RH  052%=      5-min Rain = 0
KAHS 171518Z 04012KT 12/02 A3013 RMK A01 T01180023  RH  052%=      5-min Rain = 0
KAHS 171519Z 03012KT 12/02 A3013 RMK A01 T01190023  RH  052%=      5-min Rain = 0
KAHS 171520Z 03014KT 12/02 A3013 RMK A01 T01200023  RH  052%=      5-min Rain = 0
KAHS 171521Z 04016G22KT 12/02 A3013 RMK A01 T01200024  RH  052%=      5-min Rain = 0
KAHS 171522Z 04014KT 12/02 A3013 RMK A01 T01200022  RH  051%=      5-min Rain = 0
KAHS 171523Z 03012G17KT 12/02 A3014 RMK A01 T01200024  RH  052%=      5-min Rain = 0
KAHS 171524Z 03014KT 12/02 A3014 RMK A01 T01220024  RH  051%=      5-min Rain = 0
KAHS 171525Z 03013KT 12/02 A3014 RMK A01 T01220024  RH  051%=      5-min Rain = 0
KAHS 171526Z 04016KT 12/02 A3014 RMK A01 T01210022  RH  051%=      5-min Rain = 0
KAHS 171527Z 03016G21KT 12/02 A3014 RMK A01 T01210021  RH  051%=      5-min Rain = 0
KAHS 171528Z 03018KT 12/02 A3014 RMK A01 T01210022  RH  051%=      5-min Rain = 0
KAHS 171529Z 03017G24KT 12/02 A3014 RMK A01 T01210022  RH  051%=      5-min Rain = 0
KAHS 171530Z 03017G22KT 12/02 A3013 RMK A01 T01210021  RH  051%=      5-min Rain = 0
KAHS 171531Z 03017KT 12/02 A3014 RMK A01 T01210022  RH  051%=      5-min Rain = 0
KAHS 171532Z 03016KT 12/02 A3014 RMK A01 T01210023  RH  051%=      5-min Rain = 0
KAHS 171533Z 03019G25KT 12/02 A3013 RMK A01 T01220022  RH  050%=      5-min Rain = 0
KAHS 171534Z 02013G19KT 12/02 A3014 RMK A01 T01220023  RH  051%=      5-min Rain = 0
KAHS 171535Z 02016KT 12/02 A3013 RMK A01 T01230023  RH  051%=      5-min Rain = 0
KAHS 171536Z 02017G23KT 12/02 A3013 RMK A01 T01230023  RH  050%=      5-min Rain = 0
KAHS 171537Z 03016G21KT 12/02 A3013 RMK A01 T01230022  RH  050%=      5-min Rain = 0
KAHS 171538Z 03021KT 12/02 A3013 RMK A01 T01220022  RH  050%=      5-min Rain = 0
KAHS 171539Z 02016KT 12/02 A3013 RMK A01 T01220022  RH  050%=      5-min Rain = 0
KAHS 171540Z 02016KT 12/02 A3013 RMK A01 T01230023  RH  050%=      5-min Rain = 0
KAHS 171541Z 02019KT 12/02 A3013 RMK A01 T01230022  RH  050%=      5-min Rain = 0
KAHS 171542Z 03017KT 12/02 A3013 RMK A01 T01230022  RH  050%=      5-min Rain = 0
KAHS 171543Z 02018KT 12/02 A3013 RMK A01 T01240022  RH  050%=      5-min Rain = 0
KAHS 171544Z 02019G24KT 12/02 A3013 RMK A01 T01240022  RH  050%=      5-min Rain = 0
KAHS 171545Z 02018G23KT 12/02 A3014 RMK A01 T01230022  RH  050%=      5-min Rain = 0
KAHS 171546Z 02016G22KT 12/02 A3014 RMK A01 T01230022  RH  050%=      5-min Rain = 0
KAHS 171547Z 02012G19KT 13/03 A3014 RMK A01 T01260025  RH  050%=      5-min Rain = 0
KAHS 171548Z 02019G24KT 13/02 A3014 RMK A01 T01270023  RH  049%=      5-min Rain = 0
KAHS 171549Z 02018G23KT 13/02 A3014 RMK A01 T01250021  RH  049%=      5-min Rain = 0
KAHS 171550Z 03014KT 13/02 A3014 RMK A01 T01250023  RH  050%=      5-min Rain = 0
KAHS 171551Z 02014G19KT 13/02 A3014 RMK A01 T01270024  RH  049%=      5-min Rain = 0
KAHS 171552Z 02017G22KT 13/02 A3014 RMK A01 T01280024  RH  049%=      5-min Rain = 0
KAHS 171553Z 02016G21KT 13/02 A3014 RMK A01 T01280023  RH  049%=      5-min Rain = 0
KAHS 171554Z 03014KT 13/02 A3014 RMK A01 T01290024  RH  049%=      5-min Rain = 0
KAHS 171555Z 03017KT 13/02 A3014 RMK A01 T01290023  RH  049%=      5-min Rain = 0
KAHS 171556Z 03017G22KT 13/02 A3014 RMK A01 T01280022  RH  049%=      5-min Rain = 0
KAHS 171557Z 03017KT 13/02 A3014 RMK A01 T01270022  RH  049%=      5-min Rain = 0
KAHS 171558Z 03017KT 13/02 A3014 RMK A01 T01270023  RH  049%=      5-min Rain = 0
KAHS 171559Z 02017G22KT 13/02 A3014 RMK A01 T01280023  RH  049%=      5-min Rain = 0
KAHS 171600Z 03017G22KT 13/02 A3014 RMK A01 T01280023  RH  049%=      5-min Rain = 0
KAHS 171601Z 02020KT 13/02 A3014 RMK A01 T01270023  RH  049%=      5-min Rain = 0
KAHS 171602Z 03016KT 13/02 A3014 RMK A01 T01260022  RH  049%=      5-min Rain = 0
KAHS 171603Z 03016KT 13/02 A3014 RMK A01 T01270024  RH  049%=      5-min Rain = 0
KAHS 171604Z 02018G23KT 13/02 A3014 RMK A01 T01280023  RH  049%=      5-min Rain = 0
KAHS 171605Z 02015KT 13/02 A3014 RMK A01 T01280024  RH  049%=      5-min Rain = 0
KAHS 171606Z 02014KT 13/03 A3014 RMK A01 T01290025  RH  049%=      5-min Rain = 0
KAHS 171607Z 03014KT 13/03 A3015 RMK A01 T01310025  RH  049%=      5-min Rain = 0
KAHS 171608Z 03013KT 13/03 A3015 RMK A01 T01320025  RH  049%=      5-min Rain = 0
KAHS 171609Z 03013KT 13/03 A3015 RMK A01 T01330025  RH  048%=      5-min Rain = 0
KAHS 171610Z 04014G19KT 13/03 A3015 RMK A01 T01320025  RH  048%=      5-min Rain = 0
KAHS 171611Z 04015G20KT 13/03 A3014 RMK A01 T01330025  RH  048%=      5-min Rain = 0
KAHS 171612Z 04013KT 13/03 A3014 RMK A01 T01320025  RH  048%=      5-min Rain = 0
KAHS 171613Z 04015G22KT 13/03 A3014 RMK A01 T01340026  RH  048%=      5-min Rain = 0
KAHS 171614Z 03014G19KT 13/03 A3014 RMK A01 T01340025  RH  048%=      5-min Rain = 0
KAHS 171615Z 02013KT 13/03 A3015 RMK A01 T01340026  RH  048%=      5-min Rain = 0
KAHS 171616Z 02014G19KT 14/03 A3014 RMK A01 T01350026  RH  048%=      5-min Rain = 0
KAHS 171617Z 02015G21KT 14/03 A3015 RMK A01 T01350025  RH  048%=      5-min Rain = 0
KAHS 171618Z 03012KT 14/03 A3015 RMK A01 T01350026  RH  048%=      5-min Rain = 0
KAHS 171619Z 03014KT 14/03 A3014 RMK A01 T01360026  RH  047%=      5-min Rain = 0
KAHS 171620Z 02012G17KT 14/03 A3014 RMK A01 T01370028  RH  047%=      5-min Rain = 0
KAHS 171621Z 02015KT 14/03 A3014 RMK A01 T01380026  RH  047%=      5-min Rain = 0
KAHS 171622Z 02017KT 14/03 A3014 RMK A01 T01360025  RH  047%=      5-min Rain = 0
KAHS 171623Z 02016KT 13/02 A3014 RMK A01 T01340024  RH  047%=      5-min Rain = 0
KAHS 171624Z 03014KT 14/03 A3014 RMK A01 T01350025  RH  047%=      5-min Rain = 0
KAHS 171625Z 04015KT 14/03 A3014 RMK A01 T01360026  RH  047%=      5-min Rain = 0
KAHS 171626Z 02016G21KT 14/03 A3014 RMK A01 T01360025  RH  047%=      5-min Rain = 0
KAHS 171627Z 03017KT 14/02 A3014 RMK A01 T01350024  RH  047%=      5-min Rain = 0
KAHS 171628Z 03016KT 14/03 A3014 RMK A01 T01350025  RH  047%=      5-min Rain = 0
KAHS 171629Z 02017KT 14/03 A3014 RMK A01 T01350025  RH  047%=      5-min Rain = 0
KAHS 171630Z 02015KT 14/03 A3015 RMK A01 T01360025  RH  047%=      5-min Rain = 0
KAHS 171631Z 02012G18KT 14/02 A3015 RMK A01 T01350024  RH  047%=      5-min Rain = 0
KAHS 171632Z 03012KT 14/03 A3015 RMK A01 T01370027  RH  047%=      5-min Rain = 0
KAHS 171633Z 02015KT 14/03 A3015 RMK A01 T01390026  RH  047%=      5-min Rain = 0
KAHS 171634Z 01014KT 14/03 A3015 RMK A01 T01380026  RH  047%=      5-min Rain = 0
KAHS 171635Z 02013KT 14/03 A3014 RMK A01 T01370025  RH  047%=      5-min Rain = 0
KAHS 171636Z 02013KT 14/03 A3014 RMK A01 T01370026  RH  047%=      5-min Rain = 0
KAHS 171637Z 02012KT 14/03 A3014 RMK A01 T01380027  RH  047%=      5-min Rain = 0
KAHS 171638Z 01016KT 14/03 A3014 RMK A01 T01390026  RH  047%=      5-min Rain = 0
KAHS 171639Z 03014KT 14/03 A3014 RMK A01 T01370025  RH  047%=      5-min Rain = 0
KAHS 171640Z 01015KT 14/03 A3014 RMK A01 T01370026  RH  047%=      5-min Rain = 0
KAHS 171641Z 03013KT 14/03 A3014 RMK A01 T01370025  RH  047%=      5-min Rain = 0
KAHS 171642Z 04014KT 14/03 A3014 RMK A01 T01370026  RH  047%=      5-min Rain = 0
KAHS 171643Z 04015G20KT 14/03 A3014 RMK A01 T01370025  RH  047%=      5-min Rain = 0
KAHS 171644Z 03014KT 14/03 A3014 RMK A01 T01360025  RH  047%=      5-min Rain = 0
KAHS 171645Z 04014KT 14/03 A3014 RMK A01 T01370027  RH  047%=      5-min Rain = 0
KAHS 171646Z 02012KT 14/03 A3014 RMK A01 T01380026  RH  047%=      5-min Rain = 0
KAHS 171647Z 02013KT 14/03 A3014 RMK A01 T01400027  RH  046%=      5-min Rain = 0
KAHS 171648Z 03013KT 14/03 A3014 RMK A01 T01390026  RH  046%=      5-min Rain = 0
KAHS 171649Z 03010G15KT 14/03 A3014 RMK A01 T01410028  RH  047%=      5-min Rain = 0
KAHS 171650Z 04012KT 14/03 A3014 RMK A01 T01440028  RH  046%=      5-min Rain = 0
KAHS 171651Z 04011KT 14/03 A3014 RMK A01 T01440027  RH  045%=      5-min Rain = 0
KAHS 171652Z 04012G17KT 15/03 A3014 RMK A01 T01450027  RH  045%=      5-min Rain = 0
KAHS 171653Z 04014KT 14/03 A3014 RMK A01 T01440025  RH  045%=      5-min Rain = 0
KAHS 171654Z 04016KT 14/02 A3014 RMK A01 T01410024  RH  045%=      5-min Rain = 0
KAHS 171655Z 04018KT 14/02 A3014 RMK A01 T01400023  RH  045%=      5-min Rain = 0
KAHS 171656Z 03017KT 14/02 A3014 RMK A01 T01380023  RH  046%=      5-min Rain = 0
KAHS 171657Z 04012G19KT 14/03 A3014 RMK A01 T01390025  RH  046%=      5-min Rain = 0
KAHS 171658Z 04013G18KT 14/03 A3014 RMK A01 T01400025  RH  046%=      5-min Rain = 0
KAHS 171659Z 04013KT 14/03 A3014 RMK A01 T01420026  RH  046%=      5-min Rain = 0
KAHS 171700Z 04016KT 14/03 A3014 RMK A01 T01420025  RH  045%=      5-min Rain = 0
KAHS 171701Z 04013KT 14/02 A3014 RMK A01 T01410024  RH  045%=      5-min Rain = 0
KAHS 171702Z 05012KT 14/03 A3014 RMK A01 T01420026  RH  045%=      5-min Rain = 0
KAHS 171703Z 04016KT 14/03 A3014 RMK A01 T01440026  RH  045%=      5-min Rain = 0
KAHS 171704Z 04016KT 14/03 A3014 RMK A01 T01430025  RH  045%=      5-min Rain = 0
KAHS 171705Z 04011KT 14/03 A3014 RMK A01 T01430026  RH  045%=      5-min Rain = 0
KAHS 171706Z 04013KT 15/03 A3014 RMK A01 T01450027  RH  045%=      5-min Rain = 0
KAHS 171707Z 04012G18KT 15/03 A3014 RMK A01 T01450027  RH  045%=      5-min Rain = 0
KAHS 171708Z 04016KT 15/03 A3014 RMK A01 T01450025  RH  044%=      5-min Rain = 0
KAHS 171709Z 04012KT 14/03 A3014 RMK A01 T01440025  RH  045%=      5-min Rain = 0
KAHS 171710Z 04014G19KT 15/03 A3014 RMK A01 T01460026  RH  044%=      5-min Rain = 0
KAHS 171711Z 04013KT 15/03 A3014 RMK A01 T01460026  RH  044%=      5-min Rain = 0
KAHS 171712Z 05014KT 15/03 A3014 RMK A01 T01460026  RH  044%=      5-min Rain = 0
KAHS 171713Z 04011KT 15/03 A3014 RMK A01 T01460026  RH  044%=      5-min Rain = 0
KAHS 171714Z 04012KT 15/03 A3014 RMK A01 T01480027  RH  044%=      5-min Rain = 0
KAHS 171715Z 02014KT 15/03 A3014 RMK A01 T01500029  RH  044%=      5-min Rain = 0
KAHS 171716Z 03015KT 15/03 A3014 RMK A01 T01500027  RH  043%=      5-min Rain = 0
KAHS 171717Z 02013KT 15/03 A3014 RMK A01 T01490026  RH  044%=      5-min Rain = 0
KAHS 171718Z 02013KT 15/03 A3014 RMK A01 T01490026  RH  043%=      5-min Rain = 0
KAHS 171719Z 03013G20KT 15/03 A3014 RMK A01 T01510028  RH  043%=      5-min Rain = 0
KAHS 171720Z 04015G20KT 15/03 A3014 RMK A01 T01510026  RH  043%=      5-min Rain = 0
KAHS 171721Z 03015G20KT 15/03 A3014 RMK A01 T01490025  RH  043%=      5-min Rain = 0
KAHS 171722Z 03013KT 15/03 A3014 RMK A01 T01480025  RH  044%=      5-min Rain = 0
KAHS 171723Z 03009G15KT 15/03 A3014 RMK A01 T01490027  RH  044%=      5-min Rain = 0
KAHS 171724Z 04013KT 15/03 A3014 RMK A01 T01520028  RH  043%=      5-min Rain = 0
KAHS 171725Z 05014G19KT 15/03 A3014 RMK A01 T01510027  RH  043%=      5-min Rain = 0
KAHS 171726Z 03016KT 15/03 A3014 RMK A01 T01500025  RH  043%=      5-min Rain = 0
KAHS 171727Z 03015KT 15/03 A3014 RMK A01 T01490026  RH  043%=      5-min Rain = 0
KAHS 171728Z 03014KT 15/02 A3014 RMK A01 T01470024  RH  043%=      5-min Rain = 0
KAHS 171729Z 03013KT 15/03 A3014 RMK A01 T01480026  RH  044%=      5-min Rain = 0
KAHS 171730Z 02016KT 15/03 A3014 RMK A01 T01490025  RH  043%=      5-min Rain = 0
KAHS 171731Z 02014KT 15/03 A3014 RMK A01 T01490025  RH  043%=      5-min Rain = 0
KAHS 171732Z 03013KT 15/03 A3014 RMK A01 T01500025  RH  043%=      5-min Rain = 0
KAHS 171733Z 03010KT 15/03 A3013 RMK A01 T01520027  RH  043%=      5-min Rain = 0
KAHS 171734Z 01013KT 15/03 A3013 RMK A01 T01540028  RH  042%=      5-min Rain = 0
KAHS 171735Z 02011KT 15/03 A3013 RMK A01 T01540027  RH  042%=      5-min Rain = 0
KAHS 171736Z 03012KT 16/03 A3013 RMK A01 T01550027  RH  042%=      5-min Rain = 0
KAHS 171737Z 03012KT 16/03 A3013 RMK A01 T01550028  RH  042%=      5-min Rain = 0
KAHS 171738Z 03015KT 16/03 A3013 RMK A01 T01560027  RH  042%=      5-min Rain = 0
KAHS 171739Z 04013KT 15/03 A3013 RMK A01 T01530025  RH  042%=      5-min Rain = 0
KAHS 171740Z 03010KT 15/03 A3013 RMK A01 T01530027  RH  043%=      5-min Rain = 0
KAHS 171741Z 03009KT 15/03 A3013 RMK A01 T01540029  RH  043%=      5-min Rain = 0
KAHS 171742Z 05011G16KT 16/03 A3013 RMK A01 T01570029  RH  042%=      5-min Rain = 0
KAHS 171743Z 05010KT 16/03 A3013 RMK A01 T01560027  RH  042%=      5-min Rain = 0
KAHS 171744Z 03013KT 16/03 A3013 RMK A01 T01570029  RH  042%=      5-min Rain = 0
KAHS 171745Z 01012KT 16/03 A3013 RMK A01 T01580028  RH  041%=      5-min Rain = 0
KAHS 171746Z 01013KT 16/03 A3013 RMK A01 T01590028  RH  041%=      5-min Rain = 0
KAHS 171747Z 02017KT 16/03 A3013 RMK A01 T01580025  RH  041%=      5-min Rain = 0
KAHS 171748Z 03014KT 16/03 A3013 RMK A01 T01560025  RH  041%=      5-min Rain = 0
KAHS 171749Z 03013KT 16/03 A3013 RMK A01 T01550026  RH  042%=      5-min Rain = 0
KAHS 171750Z 01012KT 16/03 A3013 RMK A01 T01560025  RH  042%=      5-min Rain = 0
KAHS 171751Z 03012G17KT 16/03 A3013 RMK A01 T01550025  RH  041%=      5-min Rain = 0
KAHS 171752Z 02017KT 16/03 A3013 RMK A01 T01570025  RH  041%=      5-min Rain = 0
KAHS 171753Z 03016KT 16/02 A3013 RMK A01 T01550023  RH  041%=      5-min Rain = 0
KAHS 171754Z 02018KT 15/02 A3013 RMK A01 T01540023  RH  041%=      5-min Rain = 0
KAHS 171755Z 03013KT 16/03 A3013 RMK A01 T01550025  RH  041%=      5-min Rain = 0
KAHS 171756Z 03014KT 16/03 A3013 RMK A01 T01570026  RH  041%=      5-min Rain = 0
KAHS 171757Z 03014KT 16/02 A3012 RMK A01 T01570024  RH  041%=      5-min Rain = 0
KAHS 171758Z 03013KT 16/02 A3012 RMK A01 T01570023  RH  041%=      5-min Rain = 0
KAHS 171759Z 04016KT 16/02 A3012 RMK A01 T01560023  RH  041%=      5-min Rain = 0
KAHS 171800Z 04013KT 16/02 A3012 RMK A01 T01550024  RH  041%=      5-min Rain = 0
KAHS 171801Z 04014KT 16/03 A3012 RMK A01 T01560025  RH  041%=      5-min Rain = 0
KAHS 171802Z 02012KT 16/03 A3012 RMK A01 T01560025  RH  041%=      5-min Rain = 0
KAHS 171803Z 03011KT 16/03 A3012 RMK A01 T01580026  RH  041%=      5-min Rain = 0
KAHS 171804Z 03010KT 16/03 A3012 RMK A01 T01590025  RH  041%=      5-min Rain = 0
KAHS 171805Z 04014G19KT 16/03 A3012 RMK A01 T01610026  RH  040%=      5-min Rain = 0
KAHS 171806Z 03015KT 16/03 A3012 RMK A01 T01600026  RH  040%=      5-min Rain = 0
KAHS 171807Z 02013KT 16/03 A3012 RMK A01 T01610026  RH  040%=      5-min Rain = 0
KAHS 171808Z 02010KT 16/02 A3012 RMK A01 T01600024  RH  040%=      5-min Rain = 0
KAHS 171809Z 02014KT 16/03 A3012 RMK A01 T01600025  RH  040%=      5-min Rain = 0
KAHS 171810Z 02015KT 16/03 A3012 RMK A01 T01610025  RH  040%=      5-min Rain = 0
KAHS 171811Z 02016G22KT 16/02 A3012 RMK A01 T01600024  RH  040%=      5-min Rain = 0
KAHS 171812Z 02018KT 16/02 A3012 RMK A01 T01600023  RH  040%=      5-min Rain = 0
KAHS 171813Z 03015KT 16/02 A3012 RMK A01 T01590022  RH  040%=      5-min Rain = 0
KAHS 171814Z 01015KT 16/02 A3012 RMK A01 T01600023  RH  040%=      5-min Rain = 0
KAHS 171815Z 02015KT 16/02 A3012 RMK A01 T01610024  RH  040%=      5-min Rain = 0
KAHS 171816Z 01015KT 16/02 A3012 RMK A01 T01610022  RH  039%=      5-min Rain = 0
KAHS 171817Z 03015KT 16/02 A3012 RMK A01 T01620024  RH  039%=      5-min Rain = 0
KAHS 171818Z 01015KT 16/02 A3012 RMK A01 T01610023  RH  039%=      5-min Rain = 0
KAHS 171819Z 02015KT 16/02 A3012 RMK A01 T01610023  RH  039%=      5-min Rain = 0
KAHS 171820Z 02012KT 16/02 A3012 RMK A01 T01620024  RH  040%=      5-min Rain = 0
KAHS 171821Z 04014KT 16/03 A3012 RMK A01 T01640025  RH  039%=      5-min Rain = 0
KAHS 171822Z 04012KT 17/02 A3012 RMK A01 T01650024  RH  039%=      5-min Rain = 0
KAHS 171823Z 02014KT 17/03 A3012 RMK A01 T01660025  RH  039%=      5-min Rain = 0
KAHS 171824Z 03014KT 17/02 A3011 RMK A01 T01650024  RH  039%=      5-min Rain = 0
KAHS 171825Z 05012KT 16/03 A3011 RMK A01 T01640025  RH  039%=      5-min Rain = 0
KAHS 171826Z 03012KT 16/03 A3011 RMK A01 T01640026  RH  039%=      5-min Rain = 0
KAHS 171827Z 03012KT 17/03 A3011 RMK A01 T01650025  RH  039%=      5-min Rain = 0
KAHS 171828Z 03011G16KT 16/02 A3011 RMK A01 T01640024  RH  039%=      5-min Rain = 0
KAHS 171829Z 04013G19KT 17/03 A3011 RMK A01 T01650027  RH  039%=      5-min Rain = 0
KAHS 171830Z 02012KT 17/03 A3011 RMK A01 T01670027  RH  039%=      5-min Rain = 0
KAHS 171831Z 01009KT 17/03 A3011 RMK A01 T01680028  RH  039%=      5-min Rain = 0
KAHS 171832Z 03009G14KT 17/03 A3011 RMK A01 T01700029  RH  039%=      5-min Rain = 0
KAHS 171833Z 02011KT 17/03 A3011 RMK A01 T01710028  RH  038%=      5-min Rain = 0
KAHS 171834Z 00012KT 17/03 A3011 RMK A01 T01720026  RH  038%=      5-min Rain = 0
KAHS 171835Z 02011KT 17/03 A3011 RMK A01 T01690025  RH  038%=      5-min Rain = 0
KAHS 171836Z 04013KT 17/03 A3011 RMK A01 T01680025  RH  038%=      5-min Rain = 0
KAHS 171837Z 03011KT 17/03 A3011 RMK A01 T01670027  RH  039%=      5-min Rain = 0
KAHS 171838Z 04012KT 17/03 A3011 RMK A01 T01690026  RH  038%=      5-min Rain = 0
KAHS 171839Z 04012KT 17/03 A3011 RMK A01 T01680026  RH  039%=      5-min Rain = 0
KAHS 171840Z 03011KT 17/03 A3011 RMK A01 T01680025  RH  038%=      5-min Rain = 0
KAHS 171841Z 03012KT 17/03 A3011 RMK A01 T01670026  RH  039%=      5-min Rain = 0
KAHS 171842Z 02008G13KT 17/03 A3011 RMK A01 T01680028  RH  039%=      5-min Rain = 0
KAHS 171843Z 01013G18KT 17/03 A3011 RMK A01 T01710028  RH  038%=      5-min Rain = 0
KAHS 171844Z 01011KT 17/03 A3011 RMK A01 T01710027  RH  038%=      5-min Rain = 0
KAHS 171845Z 01012KT 17/03 A3011 RMK A01 T01710026  RH  038%=      5-min Rain = 0
KAHS 171846Z 03009KT 17/03 A3011 RMK A01 T01710027  RH  038%=      5-min Rain = 0
KAHS 171847Z 04012KT 17/03 A301 RMK A01 T01720027  RH  038%=      5-min Rain = 0
KAHS 171848Z 04011KT 17/02 A301 RMK A01 T01690024  RH  038%=      5-min Rain = 0
KAHS 171849Z 05012G17KT 17/03 A301 RMK A01 T01680026  RH  038%=      5-min Rain = 0
KAHS 171850Z 04017KT 17/03 A301 RMK A01 T01680026  RH  038%=      5-min Rain = 0
KAHS 171851Z 04013KT 17/03 A301 RMK A01 T01680026  RH  039%=      5-min Rain = 0
KAHS 171852Z 03016KT 17/03 A3011 RMK A01 T01690026  RH  038%=      5-min Rain = 0
KAHS 171853Z 03014KT 17/03 A3011 RMK A01 T01680025  RH  038%=      5-min Rain = 0
KAHS 171854Z 03011KT 17/03 A3011 RMK A01 T01670026  RH  039%=      5-min Rain = 0
KAHS 171855Z 02010KT 17/03 A3011 RMK A01 T01690028  RH  039%=      5-min Rain = 0
KAHS 171856Z 02007KT 17/03 A301 RMK A01 T01720029  RH  038%=      5-min Rain = 0
KAHS 171857Z 02009KT 17/03 A301 RMK A01 T01740030  RH  038%=      5-min Rain = 0
KAHS 171858Z 02010KT 17/03 A301 RMK A01 T01740028  RH  038%=      5-min Rain = 0
KAHS 171859Z 04009KT 18/03 A301 RMK A01 T01750031  RH  038%=      5-min Rain = 0
KAHS 171900Z 04009KT 18/03 A301 RMK A01 T01770028  RH  037%=      5-min Rain = 0
KAHS 171901Z 04010KT 17/03 A301 RMK A01 T01740026  RH  037%=      5-min Rain = 0
KAHS 171902Z 03009KT 17/03 A301 RMK A01 T01730028  RH  038%=      5-min Rain = 0
KAHS 171903Z 03009KT 18/03 A301 RMK A01 T01750029  RH  038%=      5-min Rain = 0
KAHS 171904Z 02009KT 18/03 A301 RMK A01 T01760029  RH  037%=      5-min Rain = 0
KAHS 171905Z 03010G15KT 18/03 A301 RMK A01 T01770029  RH  037%=      5-min Rain = 0
KAHS 171906Z 04012KT 18/03 A301 RMK A01 T01750027  RH  037%=      5-min Rain = 0
KAHS 171907Z 02011KT 17/03 A301 RMK A01 T01720027  RH  038%=      5-min Rain = 0
KAHS 171908Z 02010KT 17/03 A301 RMK A01 T01720026  RH  038%=      5-min Rain = 0
KAHS 171909Z 02009KT 17/03 A301 RMK A01 T01720026  RH  038%=      5-min Rain = 0
KAHS 171910Z 03012KT 17/03 A301 RMK A01 T01720026  RH  038%=      5-min Rain = 0
KAHS 171911Z 04011KT 17/02 A301 RMK A01 T01710024  RH  037%=      5-min Rain = 0
KAHS 171912Z 03011KT 17/03 A301 RMK A01 T01700025  RH  038%=      5-min Rain = 0
KAHS 171913Z 03013G18KT 17/03 A301 RMK A01 T01710026  RH  038%=      5-min Rain = 0
KAHS 171914Z 03013KT 17/03 A301 RMK A01 T01720027  RH  038%=      5-min Rain = 0
KAHS 171915Z 03011KT 17/02 A301 RMK A01 T01700024  RH  037%=      5-min Rain = 0
KAHS 171916Z 04014KT 17/02 A301 RMK A01 T01690024  RH  038%=      5-min Rain = 0
KAHS 171917Z 05011KT 17/02 A301 RMK A01 T01690024  RH  038%=      5-min Rain = 0
KAHS 171918Z 04012KT 17/02 A301 RMK A01 T01710024  RH  037%=      5-min Rain = 0
KAHS 171919Z 03011KT 17/03 A301 RMK A01 T01710025  RH  037%=      5-min Rain = 0
KAHS 171920Z 04011KT 17/03 A301 RMK A01 T01710026  RH  038%=      5-min Rain = 0
KAHS 171921Z 06011KT 17/03 A301 RMK A01 T01710025  RH  037%=      5-min Rain = 0
KAHS 171922Z 04011KT 17/03 A301 RMK A01 T01710025  RH  038%=      5-min Rain = 0
KAHS 171923Z 05012KT 17/03 A301 RMK A01 T01720026  RH  038%=      5-min Rain = 0
KAHS 171924Z 04009KT 17/03 A301 RMK A01 T01740028  RH  038%=      5-min Rain = 0
KAHS 171925Z 04012G17KT 18/03 A301 RMK A01 T01750026  RH  037%=      5-min Rain = 0
KAHS 171926Z 03010KT 17/03 A301 RMK A01 T01730026  RH  037%=      5-min Rain = 0
KAHS 171927Z 03013KT 17/03 A301 RMK A01 T01740025  RH  037%=      5-min Rain = 0
KAHS 171928Z 03013KT 17/03 A301 RMK A01 T01720025  RH  037%=      5-min Rain = 0
KAHS 171929Z 05009KT 17/03 A301 RMK A01 T01720026  RH  038%=      5-min Rain = 0
KAHS 171930Z 05009KT 17/03 A301 RMK A01 T01720027  RH  038%=      5-min Rain = 0
KAHS 171931Z 04010KT 18/03 A301 RMK A01 T01760030  RH  038%=      5-min Rain = 0
KAHS 171932Z 05012KT 18/03 A301 RMK A01 T01780028  RH  037%=      5-min Rain = 0
KAHS 171933Z 04011KT 18/03 A301 RMK A01 T01750025  RH  036%=      5-min Rain = 0
KAHS 171934Z 05009KT 17/03 A301 RMK A01 T01730025  RH  037%=      5-min Rain = 0
KAHS 171935Z 05008KT 17/03 A301 RMK A01 T01740027  RH  037%=      5-min Rain = 0
KAHS 171936Z 04009KT 18/03 A301 RMK A01 T01760027  RH  037%=      5-min Rain = 0
KAHS 171937Z 03007KT 18/03 A301 RMK A01 T01750026  RH  037%=      5-min Rain = 0
KAHS 171938Z 02007KT 18/03 A301 RMK A01 T01760026  RH  037%=      5-min Rain = 0
KAHS 171939Z 02006KT 18/03 A301 RMK A01 T01760027  RH  037%=      5-min Rain = 0
KAHS 171940Z 02008G13KT 18/03 A301 RMK A01 T01790030  RH  037%=      5-min Rain = 0
KAHS 171941Z 02012G17KT 18/03 A301 RMK A01 T01790028  RH  036%=      5-min Rain = 0
KAHS 171942Z 03009KT 18/03 A301 RMK A01 T01780027  RH  037%=      5-min Rain = 0
KAHS 171943Z 01008KT 18/03 A301 RMK A01 T01780028  RH  037%=      5-min Rain = 0
KAHS 171944Z 00010KT 18/03 A301 RMK A01 T01780027  RH  036%=      5-min Rain = 0
KAHS 171945Z 01007KT 18/03 A301 RMK A01 T01760025  RH  037%=      5-min Rain = 0
KAHS 171946Z 01007KT 18/03 A301 RMK A01 T01770029  RH  037%=      5-min Rain = 0
KAHS 171947Z 36010KT 18/03 A301 RMK A01 T01780027  RH  037%=      5-min Rain = 0
KAHS 171948Z 36008KT 17/03 A301 RMK A01 T01740025  RH  037%=      5-min Rain = 0
KAHS 171949Z 01011KT 18/03 A301 RMK A01 T01750028  RH  038%=      5-min Rain = 0
KAHS 171950Z 02011KT 18/03 A301 RMK A01 T01770027  RH  037%=      5-min Rain = 0
KAHS 171951Z 02009KT 18/03 A301 RMK A01 T01770026  RH  037%=      5-min Rain = 0
KAHS 171952Z 02013KT 18/03 A301 RMK A01 T01770027  RH  037%=      5-min Rain = 0
KAHS 171953Z 01014KT 18/03 A301 RMK A01 T01770027  RH  037%=      5-min Rain = 0
KAHS 171954Z 01012KT 18/03 A301 RMK A01 T01760028  RH  037%=      5-min Rain = 0
KAHS 171955Z 03011KT 18/03 A301 RMK A01 T01770029  RH  037%=      5-min Rain = 0
KAHS 171956Z 03012KT 18/03 A301 RMK A01 T01780028  RH  037%=      5-min Rain = 0
KAHS 171957Z 04012KT 18/03 A301 RMK A01 T01780026  RH  036%=      5-min Rain = 0
KAHS 171958Z 04010KT 18/03 A301 RMK A01 T01770026  RH  037%=      5-min Rain = 0
KAHS 171959Z 03011KT 18/03 A301 RMK A01 T01800030  RH  037%=      5-min Rain = 0
KAHS 172000Z 04009KT 18/03 A301 RMK A01 T01790025  RH  036%=      5-min Rain = 0
KAHS 172001Z 03010KT 18/03 A301 RMK A01 T01780027  RH  036%=      5-min Rain = 0
KAHS 172002Z 03012KT 18/03 A301 RMK A01 T01780026  RH  036%=      5-min Rain = 0
KAHS 172003Z 04011KT 18/03 A3009 RMK A01 T01770026  RH  036%=      5-min Rain = 0
KAHS 172004Z 04012KT 18/03 A3009 RMK A01 T01770026  RH  036%=      5-min Rain = 0
KAHS 172005Z 04011KT 18/03 A3009 RMK A01 T01770026  RH  036%=      5-min Rain = 0
KAHS 172006Z 03011KT 18/03 A3009 RMK A01 T01780027  RH  037%=      5-min Rain = 0
KAHS 172007Z 02013KT 18/03 A3009 RMK A01 T01780027  RH  036%=      5-min Rain = 0
KAHS 172008Z 01013KT 18/03 A3009 RMK A01 T01770026  RH  036%=      5-min Rain = 0
KAHS 172009Z 01010KT 18/03 A3009 RMK A01 T01750026  RH  037%=      5-min Rain = 0
KAHS 172010Z 03009KT 18/03 A3009 RMK A01 T01770028  RH  037%=      5-min Rain = 0
KAHS 172011Z 03009KT 18/03 A3009 RMK A01 T01780028  RH  037%=      5-min Rain = 0
KAHS 172012Z 03008KT 18/03 A3009 RMK A01 T01780028  RH  037%=      5-min Rain = 0
KAHS 172013Z 02010KT 18/03 A3009 RMK A01 T01780027  RH  036%=      5-min Rain = 0
KAHS 172014Z 02007KT 18/03 A3009 RMK A01 T01770028  RH  037%=      5-min Rain = 0
KAHS 172015Z 03008KT 18/03 A3009 RMK A01 T01780029  RH  037%=      5-min Rain = 0
KAHS 172016Z 02008KT 18/03 A3009 RMK A01 T01810030  RH  037%=      5-min Rain = 0
KAHS 172017Z 02008KT 18/03 A3009 RMK A01 T01820030  RH  036%=      5-min Rain = 0
KAHS 172018Z 05013KT 18/03 A3009 RMK A01 T01830029  RH  036%=      5-min Rain = 0
KAHS 172019Z 04012KT 18/03 A3009 RMK A01 T01810028  RH  036%=      5-min Rain = 0
KAHS 172020Z 05012KT 18/03 A3009 RMK A01 T01800028  RH  036%=      5-min Rain = 0
KAHS 172021Z 04009KT 18/03 A3009 RMK A01 T01780026  RH  036%=      5-min Rain = 0
KAHS 172022Z 03009KT 18/03 A3009 RMK A01 T01760026  RH  037%=      5-min Rain = 0
KAHS 172023Z 05009KT 18/03 A3009 RMK A01 T01780029  RH  037%=      5-min Rain = 0
KAHS 172024Z 04010KT 18/03 A3009 RMK A01 T01790027  RH  036%=      5-min Rain = 0
KAHS 172025Z 04007KT 18/03 A3009 RMK A01 T01800030  RH  037%=      5-min Rain = 0
KAHS 172026Z 02009KT 18/03 A3009 RMK A01 T01810028  RH  036%=      5-min Rain = 0
KAHS 172027Z 02012KT 18/03 A3009 RMK A01 T01800029  RH  036%=      5-min Rain = 0
KAHS 172028Z 01009KT 18/03 A3009 RMK A01 T01790028  RH  036%=      5-min Rain = 0
KAHS 172029Z 03007KT 18/03 A3009 RMK A01 T01800029  RH  036%=      5-min Rain = 0
KAHS 172030Z 01006KT 18/03 A3009 RMK A01 T01800028  RH  036%=      5-min Rain = 0
KAHS 172031Z 01009KT 18/03 A3009 RMK A01 T01800028  RH  036%=      5-min Rain = 0
KAHS 172032Z 02009KT 18/03 A3009 RMK A01 T01790027  RH  036%=      5-min Rain = 0
KAHS 172033Z 35008KT 18/03 A3009 RMK A01 T01790029  RH  037%=      5-min Rain = 0
KAHS 172034Z 01007KT 18/03 A3009 RMK A01 T01790029  RH  037%=      5-min Rain = 0
KAHS 172035Z 02008KT 18/03 A3009 RMK A01 T01810029  RH  036%=      5-min Rain = 0
KAHS 172036Z 00008KT 18/03 A3009 RMK A01 T01810029  RH  036%=      5-min Rain = 0
KAHS 172037Z 00010KT 18/03 A3009 RMK A01 T01830031  RH  036%=      5-min Rain = 0
KAHS 172038Z 01009KT 18/03 A3009 RMK A01 T01830027  RH  035%=      5-min Rain = 0
KAHS 172039Z 02011G17KT 18/03 A3009 RMK A01 T01820028  RH  036%=      5-min Rain = 0
KAHS 172040Z 04009KT 18/03 A3009 RMK A01 T01820029  RH  036%=      5-min Rain = 0
KAHS 172041Z 04010KT 18/03 A3009 RMK A01 T01810027  RH  036%=      5-min Rain = 0
KAHS 172042Z 03006KT 18/03 A3009 RMK A01 T01810029  RH  036%=      5-min Rain = 0
KAHS 172043Z 02008KT 18/03 A3009 RMK A01 T01840029  RH  036%=      5-min Rain = 0
KAHS 172044Z 03010KT 18/03 A3009 RMK A01 T01820027  RH  035%=      5-min Rain = 0
KAHS 172045Z 04007KT 18/03 A3009 RMK A01 T01800027  RH  036%=      5-min Rain = 0
KAHS 172046Z 03005KT 18/03 A3009 RMK A01 T01790028  RH  036%=      5-min Rain = 0
KAHS 172047Z 03007G13KT 18/03 A3009 RMK A01 T01810030  RH  036%=      5-min Rain = 0
KAHS 172048Z 03012KT 18/03 A3009 RMK A01 T01830029  RH  036%=      5-min Rain = 0
KAHS 172049Z 02009KT 18/03 A3009 RMK A01 T01830030  RH  036%=      5-min Rain = 0
KAHS 172050Z 02008KT 19/03 A3009 RMK A01 T01850031  RH  036%=      5-min Rain = 0
KAHS 172051Z 02007KT 19/03 A3009 RMK A01 T01850030  RH  035%=      5-min Rain = 0
KAHS 172052Z 02007KT 19/03 A3009 RMK A01 T01850029  RH  035%=      5-min Rain = 0
KAHS 172053Z 02006KT 18/03 A3009 RMK A01 T01830027  RH  035%=      5-min Rain = 0
KAHS 172054Z 04004KT 18/03 A3009 RMK A01 T01810026  RH  035%=      5-min Rain = 0
KAHS 172055Z 03004KT 18/03 A3008 RMK A01 T01810027  RH  036%=      5-min Rain = 0
KAHS 172056Z 01005KT 18/03 A3008 RMK A01 T01810027  RH  036%=      5-min Rain = 0
KAHS 172057Z 02009KT 18/03 A3008 RMK A01 T01820028  RH  036%=      5-min Rain = 0
KAHS 172058Z 02006KT 18/03 A3008 RMK A01 T01810026  RH  035%=      5-min Rain = 0
KAHS 172059Z 02008KT 18/03 A3008 RMK A01 T01800025  RH  035%=      5-min Rain = 0
KAHS 172100Z 01010KT 18/03 A3008 RMK A01 T01810027  RH  036%=      5-min Rain = 0
KAHS 172101Z 01011KT 18/03 A3008 RMK A01 T01820028  RH  036%=      5-min Rain = 0
KAHS 172102Z 02010KT 18/03 A3008 RMK A01 T01820028  RH  036%=      5-min Rain = 0
KAHS 172103Z 02008KT 18/03 A3008 RMK A01 T01840029  RH  036%=      5-min Rain = 0
KAHS 172104Z 02008KT 18/03 A3008 RMK A01 T01840026  RH  035%=      5-min Rain = 0
KAHS 172105Z 02009KT 18/03 A3007 RMK A01 T01800025  RH  035%=      5-min Rain = 0
KAHS 172106Z 02009KT 18/03 A3007 RMK A01 T01790025  RH  036%=      5-min Rain = 0
KAHS 172107Z 01006KT 18/03 A3007 RMK A01 T01780025  RH  036%=      5-min Rain = 0
KAHS 172108Z 01008KT 18/03 A3007 RMK A01 T01790027  RH  036%=      5-min Rain = 0
KAHS 172109Z 02012G18KT 18/03 A3007 RMK A01 T01800027  RH  036%=      5-min Rain = 0
KAHS 172110Z 05006KT 18/03 A3007 RMK A01 T01810027  RH  036%=      5-min Rain = 0
KAHS 172111Z 01005KT 18/03 A3007 RMK A01 T01820028  RH  036%=      5-min Rain = 0
KAHS 172112Z 36006KT 18/03 A3007 RMK A01 T01830027  RH  035%=      5-min Rain = 0
KAHS 172113Z 01008KT 18/03 A3007 RMK A01 T01840028  RH  035%=      5-min Rain = 0
KAHS 172114Z 01009KT 18/03 A3007 RMK A01 T01830026  RH  035%=      5-min Rain = 0
KAHS 172115Z 03011KT 18/03 A3007 RMK A01 T01820025  RH  035%=      5-min Rain = 0
KAHS 172116Z 03009KT 18/02 A3007 RMK A01 T01810024  RH  035%=      5-min Rain = 0
KAHS 172117Z 04009KT 18/02 A3007 RMK A01 T01800024  RH  035%=      5-min Rain = 0
KAHS 172118Z 03009KT 18/03 A3007 RMK A01 T01810025  RH  035%=      5-min Rain = 0
KAHS 172119Z 03008KT 18/03 A3007 RMK A01 T01810026  RH  035%=      5-min Rain = 0
KAHS 172120Z 03009KT 18/03 A3007 RMK A01 T01830025  RH  035%=      5-min Rain = 0
KAHS 172121Z 03010KT 18/03 A3007 RMK A01 T01820025  RH  035%=      5-min Rain = 0
KAHS 172122Z 03008KT 18/03 A3007 RMK A01 T01820025  RH  035%=      5-min Rain = 0
KAHS 172123Z 03008KT 18/02 A3007 RMK A01 T01820024  RH  035%=      5-min Rain = 0
KAHS 172124Z 02008KT 18/02 A3007 RMK A01 T01810024  RH  035%=      5-min Rain = 0
KAHS 172125Z 01006KT 18/03 A3007 RMK A01 T01800025  RH  036%=      5-min Rain = 0
KAHS 172126Z 02005KT 18/03 A3007 RMK A01 T01810025  RH  035%=      5-min Rain = 0
KAHS 172127Z 01005KT 18/02 A3007 RMK A01 T01810024  RH  035%=      5-min Rain = 0
KAHS 172128Z 02007KT 18/03 A3007 RMK A01 T01810025  RH  035%=      5-min Rain = 0
KAHS 172129Z 05008KT 18/03 A3007 RMK A01 T01830026  RH  035%=      5-min Rain = 0
KAHS 172130Z 06006KT 18/02 A3007 RMK A01 T01810022  RH  034%=      5-min Rain = 0
KAHS 172131Z 06008KT 18/02 A3007 RMK A01 T01790022  RH  035%=      5-min Rain = 0
KAHS 172132Z 06007KT 18/02 A3007 RMK A01 T01780022  RH  035%=      5-min Rain = 0
KAHS 172133Z 03005KT 18/03 A3007 RMK A01 T01800026  RH  036%=      5-min Rain = 0
KAHS 172134Z 02006KT 18/03 A3007 RMK A01 T01830026  RH  035%=      5-min Rain = 0
KAHS 172135Z 04007KT 18/03 A3007 RMK A01 T01830026  RH  035%=      5-min Rain = 0
KAHS 172136Z 04006KT 18/02 A3007 RMK A01 T01830024  RH  035%=      5-min Rain = 0
KAHS 172137Z 04003KT 18/02 A3007 RMK A01 T01810023  RH  035%=      5-min Rain = 0
KAHS 172138Z 03004KT 18/02 A3007 RMK A01 T01800022  RH  035%=      5-min Rain = 0
KAHS 172139Z 06004KT 18/02 A3007 RMK A01 T01810024  RH  035%=      5-min Rain = 0
KAHS 172140Z 07007KT 18/03 A3007 RMK A01 T01810025  RH  035%=      5-min Rain = 0
KAHS 172141Z 06008KT 18/02 A3007 RMK A01 T01810024  RH  035%=      5-min Rain = 0
KAHS 172142Z 05010KT 18/02 A3007 RMK A01 T01800023  RH  035%=      5-min Rain = 0
KAHS 172143Z 05008KT 18/02 A3007 RMK A01 T01780024  RH  036%=      5-min Rain = 0
KAHS 172144Z 05008KT 18/03 A3007 RMK A01 T01800025  RH  036%=      5-min Rain = 0
KAHS 172145Z 04007KT 18/03 A3007 RMK A01 T01800025  RH  035%=      5-min Rain = 0
KAHS 172146Z 04006KT 18/03 A3007 RMK A01 T01800025  RH  036%=      5-min Rain = 0
KAHS 172147Z 03005KT 18/03 A3007 RMK A01 T01800026  RH  036%=      5-min Rain = 0
KAHS 172148Z 03005KT 18/03 A3007 RMK A01 T01810025  RH  035%=      5-min Rain = 0
KAHS 172149Z 03005KT 18/03 A3007 RMK A01 T01810025  RH  035%=      5-min Rain = 0
KAHS 172150Z 03005KT 18/03 A3007 RMK A01 T01810025  RH  035%=      5-min Rain = 0
KAHS 172151Z 04003KT 18/03 A3007 RMK A01 T01810025  RH  035%=      5-min Rain = 0
KAHS 172152Z 04005KT 18/03 A3007 RMK A01 T01810025  RH  035%=      5-min Rain = 0
KAHS 172153Z 03003KT 18/03 A3007 RMK A01 T01810026  RH  036%=      5-min Rain = 0
KAHS 172154Z 00003KT 18/03 A3007 RMK A01 T01830027  RH  035%=      5-min Rain = 0
KAHS 172155Z 35004KT 18/03 A3007 RMK A01 T01820025  RH  035%=      5-min Rain = 0
KAHS 172156Z 34004KT 18/02 A3007 RMK A01 T01800023  RH  035%=      5-min Rain = 0
KAHS 172157Z 34003KT 18/02 A3007 RMK A01 T01790024  RH  035%=      5-min Rain = 0
KAHS 172158Z 02004KT 18/03 A3007 RMK A01 T01800025  RH  036%=      5-min Rain = 0
KAHS 172159Z 04005KT 18/03 A3007 RMK A01 T01800025  RH  035%=      5-min Rain = 0
KAHS 172200Z 02005KT 18/03 A3007 RMK A01 T01800025  RH  035%=      5-min Rain = 0
KAHS 172201Z 02006KT 18/03 A3007 RMK A01 T01810026  RH  036%=      5-min Rain = 0
KAHS 172202Z 36006KT 18/03 A3007 RMK A01 T01810025  RH  035%=      5-min Rain = 0
KAHS 172203Z 35007KT 18/03 A3007 RMK A01 T01820027  RH  036%=      5-min Rain = 0
KAHS 172204Z 36007KT 18/03 A3007 RMK A01 T01810025  RH  035%=      5-min Rain = 0
KAHS 172205Z 35007KT 18/03 A3007 RMK A01 T01810025  RH  035%=      5-min Rain = 0
KAHS 172206Z 02008KT 18/03 A3007 RMK A01 T01810025  RH  035%=      5-min Rain = 0
KAHS 172207Z 02007KT 18/03 A3007 RMK A01 T01810025  RH  035%=      5-min Rain = 0
KAHS 172208Z 02007KT 18/02 A3007 RMK A01 T01800024  RH  035%=      5-min Rain = 0
KAHS 172209Z 00007KT 18/03 A3007 RMK A01 T01800026  RH  036%=      5-min Rain = 0
KAHS 172210Z 35005KT 18/02 A3007 RMK A01 T01790023  RH  035%=      5-min Rain = 0
KAHS 172211Z 01005KT 18/02 A3007 RMK A01 T01790024  RH  035%=      5-min Rain = 0
KAHS 172212Z 00004KT 18/02 A3007 RMK A01 T01790024  RH  035%=      5-min Rain = 0
KAHS 172213Z 01005KT 18/02 A3007 RMK A01 T01790024  RH  035%=      5-min Rain = 0
KAHS 172214Z 01004KT 18/03 A3007 RMK A01 T01790025  RH  036%=      5-min Rain = 0
KAHS 172215Z 00004KT 18/03 A3007 RMK A01 T01800025  RH  036%=      5-min Rain = 0
KAHS 172216Z 01008KT 18/03 A3007 RMK A01 T01800026  RH  036%=      5-min Rain = 0
KAHS 172217Z 02007KT 18/03 A3007 RMK A01 T01800026  RH  036%=      5-min Rain = 0
KAHS 172218Z 04008KT 18/03 A3007 RMK A01 T01790026  RH  036%=      5-min Rain = 0
KAHS 172219Z 04006KT 18/03 A3007 RMK A01 T01790026  RH  036%=      5-min Rain = 0
KAHS 172220Z 04007KT 18/03 A3007 RMK A01 T01790027  RH  036%=      5-min Rain = 0
KAHS 172221Z 04008KT 18/03 A3007 RMK A01 T01790026  RH  036%=      5-min Rain = 0
KAHS 172222Z 05007KT 18/03 A3007 RMK A01 T01790026  RH  036%=      5-min Rain = 0
KAHS 172223Z 02006KT 18/03 A3007 RMK A01 T01780026  RH  036%=      5-min Rain = 0
KAHS 172224Z 00005KT 18/02 A3007 RMK A01 T01790023  RH  035%=      5-min Rain = 0
KAHS 172225Z 00004KT 18/02 A3007 RMK A01 T01780023  RH  035%=      5-min Rain = 0
KAHS 172226Z 03006KT 18/02 A3007 RMK A01 T01770021  RH  035%=      5-min Rain = 0
KAHS 172227Z 02006KT 18/02 A3007 RMK A01 T01770024  RH  036%=      5-min Rain = 0
KAHS 172228Z 03008KT 18/02 A3007 RMK A01 T01770024  RH  036%=      5-min Rain = 0
KAHS 172229Z 03007KT 18/02 A3007 RMK A01 T01770024  RH  036%=      5-min Rain = 0
KAHS 172230Z 04005KT 18/02 A3007 RMK A01 T01760022  RH  036%=      5-min Rain = 0
KAHS 172231Z 05005KT 18/03 A3007 RMK A01 T01760025  RH  036%=      5-min Rain = 0
KAHS 172232Z 05006KT 18/02 A3006 RMK A01 T01760024  RH  036%=      5-min Rain = 0
KAHS 172233Z 04006KT 18/02 A3006 RMK A01 T01760024  RH  036%=      5-min Rain = 0
KAHS 172234Z 03005KT 18/02 A3006 RMK A01 T01760024  RH  036%=      5-min Rain = 0
KAHS 172235Z 04005KT 18/02 A3006 RMK A01 T01760022  RH  036%=      5-min Rain = 0
KAHS 172236Z 04005KT 18/02 A3006 RMK A01 T01750022  RH  036%=      5-min Rain = 0
KAHS 172237Z 04004KT 18/02 A3006 RMK A01 T01760023  RH  036%=      5-min Rain = 0
KAHS 172238Z 04005KT 18/02 A3006 RMK A01 T01760021  RH  035%=      5-min Rain = 0
KAHS 172239Z 03004KT 18/02 A3006 RMK A01 T01750021  RH  036%=      5-min Rain = 0
KAHS 172240Z 03005KT 18/02 A3006 RMK A01 T01750023  RH  036%=      5-min Rain = 0
KAHS 172241Z 03005KT 18/02 A3007 RMK A01 T01750024  RH  036%=      5-min Rain = 0
KAHS 172242Z 04003KT 17/02 A3006 RMK A01 T01740023  RH  036%=      5-min Rain = 0
KAHS 172243Z 06004KT 17/02 A3006 RMK A01 T01740024  RH  036%=      5-min Rain = 0
KAHS 172244Z 05003KT 17/02 A3006 RMK A01 T01740024  RH  037%=      5-min Rain = 0
KAHS 172245Z 03005KT 17/02 A3006 RMK A01 T01740024  RH  037%=      5-min Rain = 0
KAHS 172246Z 04005KT 17/03 A3006 RMK A01 T01740025  RH  037%=      5-min Rain = 0
KAHS 172247Z 04006KT 17/03 A3006 RMK A01 T01740025  RH  037%=      5-min Rain = 0
KAHS 172248Z 04005KT 17/03 A3006 RMK A01 T01730025  RH  037%=      5-min Rain = 0
KAHS 172249Z 04004KT 17/03 A3006 RMK A01 T01730027  RH  037%=      5-min Rain = 0
KAHS 172250Z 04005KT 17/03 A3006 RMK A01 T01730027  RH  037%=      5-min Rain = 0
KAHS 172251Z 04005KT 17/03 A3006 RMK A01 T01730027  RH  038%=      5-min Rain = 0
KAHS 172252Z 04004KT 17/03 A3006 RMK A01 T01720027  RH  038%=      5-min Rain = 0
KAHS 172253Z 04004KT 17/03 A3006 RMK A01 T01720028  RH  038%=      5-min Rain = 0
KAHS 172254Z 03005KT 17/03 A3006 RMK A01 T01720029  RH  038%=      5-min Rain = 0
KAHS 172255Z 03006KT 17/03 A3006 RMK A01 T01720028  RH  038%=      5-min Rain = 0
KAHS 172256Z 03006KT 17/03 A3006 RMK A01 T01720028  RH  038%=      5-min Rain = 0
KAHS 172257Z 04005KT 17/03 A3006 RMK A01 T01720027  RH  038%=      5-min Rain = 0
KAHS 172258Z 04005KT 17/03 A3006 RMK A01 T01710028  RH  038%=      5-min Rain = 0
KAHS 172259Z 04006KT 17/03 A3006 RMK A01 T01710028  RH  038%=      5-min Rain = 0
KAHS 172300Z 04005KT 17/03 A3006 RMK A01 T01700028  RH  038%=      5-min Rain = 0
KAHS 172301Z 04005KT 17/03 A3006 RMK A01 T01700028  RH  039%=      5-min Rain = 0
KAHS 172302Z 03005KT 17/03 A3006 RMK A01 T01700028  RH  039%=      5-min Rain = 0
KAHS 172303Z 03005KT 17/03 A3006 RMK A01 T01700029  RH  039%=      5-min Rain = 0
KAHS 172304Z 04004KT 17/03 A3006 RMK A01 T01690029  RH  039%=      5-min Rain = 0
KAHS 172305Z 04004KT 17/03 A3006 RMK A01 T01690029  RH  039%=      5-min Rain = 0
KAHS 172306Z 04004KT 17/03 A3006 RMK A01 T01670029  RH  039%=      5-min Rain = 0
KAHS 172307Z 05006KT 17/03 A3006 RMK A01 T01670029  RH  040%=      5-min Rain = 0
KAHS 172308Z 04006KT 17/03 A3006 RMK A01 T01660027  RH  039%=      5-min Rain = 0
KAHS 172309Z 03006KT 17/03 A3006 RMK A01 T01650027  RH  040%=      5-min Rain = 0
KAHS 172310Z 03005KT 17/03 A3006 RMK A01 T01650028  RH  040%=      5-min Rain = 0
KAHS 172311Z 03005KT 16/03 A3006 RMK A01 T01630028  RH  040%=      5-min Rain = 0
KAHS 172312Z 03005KT 16/03 A3006 RMK A01 T01630029  RH  041%=      5-min Rain = 0
KAHS 172313Z 03004KT 16/03 A3006 RMK A01 T01610028  RH  041%=      5-min Rain = 0
KAHS 172314Z 03003KT 16/03 A3006 RMK A01 T01600028  RH  041%=      5-min Rain = 0
KAHS 172315Z 03003KT 16/03 A3006 RMK A01 T01600028  RH  041%=      5-min Rain = 0
KAHS 172316Z 03003KT 16/03 A3006 RMK A01 T01590028  RH  041%=      5-min Rain = 0
KAHS 172317Z 03003KT 16/03 A3007 RMK A01 T01590029  RH  041%=      5-min Rain = 0
KAHS 172318Z 02003KT 16/03 A3007 RMK A01 T01590029  RH  042%=      5-min Rain = 0
KAHS 172319Z 02002KT 16/03 A3007 RMK A01 T01580028  RH  042%=      5-min Rain = 0
KAHS 172320Z 02003KT 16/03 A3007 RMK A01 T01580028  RH  042%=      5-min Rain = 0
KAHS 172321Z 02003KT 16/03 A3007 RMK A01 T01580028  RH  042%=      5-min Rain = 0
KAHS 172322Z 03003KT 16/03 A3007 RMK A01 T01570027  RH  042%=      5-min Rain = 0
KAHS 172323Z 03003KT 16/03 A3007 RMK A01 T01570027  RH  042%=      5-min Rain = 0
KAHS 172324Z 03003KT 16/03 A3007 RMK A01 T01570027  RH  042%=      5-min Rain = 0
KAHS 172325Z 03003KT 16/03 A3007 RMK A01 T01560027  RH  042%=      5-min Rain = 0
KAHS 172326Z 03003KT 16/03 A3007 RMK A01 T01550027  RH  042%=      5-min Rain = 0
KAHS 172327Z 03003KT 16/03 A3007 RMK A01 T01550027  RH  042%=      5-min Rain = 0
KAHS 172328Z 03003KT 15/03 A3007 RMK A01 T01540027  RH  042%=      5-min Rain = 0
KAHS 172329Z 03003KT 15/03 A3007 RMK A01 T01540027  RH  043%=      5-min Rain = 0
KAHS 172330Z 03003KT 15/03 A3007 RMK A01 T01530027  RH  043%=      5-min Rain = 0
KAHS 172331Z 03003KT 15/03 A3007 RMK A01 T01520027  RH  043%=      5-min Rain = 0
KAHS 172332Z 02003KT 15/03 A3007 RMK A01 T01510027  RH  043%=      5-min Rain = 0
KAHS 172333Z 02003KT 15/03 A3007 RMK A01 T01500026  RH  043%=      5-min Rain = 0
KAHS 172334Z 02004KT 15/03 A3007 RMK A01 T01490027  RH  044%=      5-min Rain = 0
KAHS 172335Z 02004KT 15/03 A3007 RMK A01 T01490026  RH  044%=      5-min Rain = 0
KAHS 172336Z 02004KT 15/03 A3007 RMK A01 T01490027  RH  044%=      5-min Rain = 0
KAHS 172337Z 02004KT 15/03 A3007 RMK A01 T01480026  RH  044%=      5-min Rain = 0
KAHS 172338Z 03004KT 15/03 A3007 RMK A01 T01470026  RH  044%=      5-min Rain = 0
KAHS 172339Z 03004KT 15/03 A3007 RMK A01 T01470026  RH  044%=      5-min Rain = 0
KAHS 172340Z 02004KT 15/03 A3007 RMK A01 T01460027  RH  045%=      5-min Rain = 0
KAHS 172341Z 02004KT 15/03 A3007 RMK A01 T01450027  RH  045%=      5-min Rain = 0
KAHS 172342Z 02004KT 14/03 A3007 RMK A01 T01440027  RH  045%=      5-min Rain = 0
KAHS 172343Z 03004KT 14/03 A3007 RMK A01 T01440027  RH  045%=      5-min Rain = 0
KAHS 172344Z 03004KT 14/03 A3007 RMK A01 T01440027  RH  045%=      5-min Rain = 0
KAHS 172345Z 03004KT 14/03 A3007 RMK A01 T01430027  RH  045%=      5-min Rain = 0
KAHS 172346Z 03003KT 14/03 A3007 RMK A01 T01430027  RH  045%=      5-min Rain = 0
KAHS 172347Z 03003KT 14/03 A3007 RMK A01 T01430027  RH  045%=      5-min Rain = 0
KAHS 172348Z 03003KT 14/03 A3007 RMK A01 T01420027  RH  046%=      5-min Rain = 0
KAHS 172349Z 03003KT 14/03 A3007 RMK A01 T01420027  RH  046%=      5-min Rain = 0
KAHS 172350Z 03004KT 14/03 A3008 RMK A01 T01410027  RH  046%=      5-min Rain = 0
KAHS 172351Z 02004KT 14/03 A3008 RMK A01 T01410026  RH  046%=      5-min Rain = 0
KAHS 172352Z 02004KT 14/03 A3007 RMK A01 T01400026  RH  046%=      5-min Rain = 0
KAHS 172353Z 02004KT 14/03 A3007 RMK A01 T01400026  RH  046%=      5-min Rain = 0
KAHS 172354Z 02004KT 14/03 A3007 RMK A01 T01390026  RH  047%=      5-min Rain = 0
KAHS 172355Z 02004KT 14/03 A3007 RMK A01 T01380026  RH  047%=      5-min Rain = 0
KAHS 172356Z 03004KT 14/03 A3007 RMK A01 T01380026  RH  047%=      5-min Rain = 0
KAHS 172357Z 03005KT 14/03 A3007 RMK A01 T01370027  RH  047%=      5-min Rain = 0
KAHS 172358Z 03005KT 14/03 A3007 RMK A01 T01360027  RH  047%=      5-min Rain = 0
KAHS 172359Z 03004KT 14/03 A3007 RMK A01 T01360027  RH  048%=      5-min Rain = 0
KAHS 180000Z 03004KT 13/03 A3007 RMK A01 T01340027  RH  048%=      5-min Rain = 0
KAHS 180001Z 03004KT 13/03 A3007 RMK A01 T01330027  RH  049%=      5-min Rain = 0
KAHS 180002Z 03004KT 13/03 A3007 RMK A01 T01320027  RH  049%=      5-min Rain = 0
KAHS 180003Z 03004KT 13/03 A3008 RMK A01 T01310027  RH  049%=      5-min Rain = 0
KAHS 180004Z 03004KT 13/03 A3008 RMK A01 T01310027  RH  049%=      5-min Rain = 0
KAHS 180005Z 03004KT 13/03 A3008 RMK A01 T01310027  RH  049%=      5-min Rain = 0
KAHS 180006Z 03004KT 13/03 A3008 RMK A01 T01310026  RH  049%=      5-min Rain = 0
KAHS 180007Z 04004KT 13/03 A3008 RMK A01 T01310026  RH  049%=      5-min Rain = 0
KAHS 180008Z 04004KT 13/03 A3008 RMK A01 T01300026  RH  049%=      5-min Rain = 0
KAHS 180009Z 03004KT 13/03 A3008 RMK A01 T01300026  RH  049%=      5-min Rain = 0
KAHS 180010Z 03004KT 13/03 A3008 RMK A01 T01300026  RH  049%=      5-min Rain = 0
KAHS 180011Z 03004KT 13/03 A3008 RMK A01 T01300026  RH  049%=      5-min Rain = 0
KAHS 180012Z 03004KT 13/03 A3008 RMK A01 T01300026  RH  049%=      5-min Rain = 0
KAHS 180013Z 03004KT 13/03 A3008 RMK A01 T01290026  RH  049%=      5-min Rain = 0
KAHS 180014Z 03004KT 13/03 A3008 RMK A01 T01280026  RH  050%=      5-min Rain = 0
KAHS 180015Z 02004KT 13/03 A3008 RMK A01 T01280027  RH  050%=      5-min Rain = 0
KAHS 180016Z 02004KT 13/03 A3008 RMK A01 T01270027  RH  050%=      5-min Rain = 0
KAHS 180017Z 02004KT 13/03 A3008 RMK A01 T01270027  RH  051%=      5-min Rain = 0
KAHS 180018Z 02004KT 13/03 A3008 RMK A01 T01260027  RH  051%=      5-min Rain = 0
KAHS 180019Z 02004KT 13/03 A3008 RMK A01 T01260027  RH  051%=      5-min Rain = 0
KAHS 180020Z 02004KT 13/03 A3008 RMK A01 T01260027  RH  051%=      5-min Rain = 0
KAHS 180021Z 02004KT 13/03 A3008 RMK A01 T01250027  RH  051%=      5-min Rain = 0
KAHS 180022Z 02004KT 13/03 A3008 RMK A01 T01250027  RH  051%=      5-min Rain = 0
KAHS 180023Z 02004KT 13/03 A3008 RMK A01 T01250026  RH  051%=      5-min Rain = 0
KAHS 180024Z 02004KT 13/03 A3008 RMK A01 T01250026  RH  051%=      5-min Rain = 0
KAHS 180025Z 02004KT 13/03 A3009 RMK A01 T01250026  RH  051%=      5-min Rain = 0
KAHS 180026Z 02004KT 13/03 A3009 RMK A01 T01250026  RH  051%=      5-min Rain = 0
KAHS 180027Z 02004KT 13/03 A3009 RMK A01 T01250027  RH  051%=      5-min Rain = 0
KAHS 180028Z 02004KT 13/03 A3009 RMK A01 T01250027  RH  051%=      5-min Rain = 0
KAHS 180029Z 02004KT 13/03 A3009 RMK A01 T01250027  RH  051%=      5-min Rain = 0
KAHS 180030Z 02003KT 13/03 A3009 RMK A01 T01250027  RH  051%=      5-min Rain = 0
KAHS 180031Z 02003KT 12/03 A3009 RMK A01 T01240027  RH  051%=      5-min Rain = 0
KAHS 180032Z 02003KT 12/03 A3009 RMK A01 T01240027  RH  051%=      5-min Rain = 0
KAHS 180033Z 02003KT 12/03 A3009 RMK A01 T01240026  RH  051%=      5-min Rain = 0
KAHS 180034Z 03003KT 12/03 A3009 RMK A01 T01240026  RH  051%=      5-min Rain = 0
KAHS 180035Z 03003KT 13/03 A3009 RMK A01 T01250026  RH  051%=      5-min Rain = 0
KAHS 180036Z 03003KT 13/03 A3009 RMK A01 T01250026  RH  051%=      5-min Rain = 0
KAHS 180037Z 02003KT 13/03 A3009 RMK A01 T01250026  RH  051%=      5-min Rain = 0
KAHS 180038Z 02003KT 12/03 A3009 RMK A01 T01240026  RH  051%=      5-min Rain = 0
KAHS 180039Z 02003KT 12/03 A3009 RMK A01 T01240026  RH  051%=      5-min Rain = 0
KAHS 180040Z 02003KT 12/03 A3009 RMK A01 T01240026  RH  051%=      5-min Rain = 0
KAHS 180041Z 02003KT 12/03 A3009 RMK A01 T01230026  RH  051%=      5-min Rain = 0
KAHS 180042Z 02003KT 12/03 A3009 RMK A01 T01230026  RH  051%=      5-min Rain = 0
KAHS 180043Z 02003KT 12/03 A3009 RMK A01 T01230026  RH  052%=      5-min Rain = 0
KAHS 180044Z 02003KT 12/03 A3009 RMK A01 T01230026  RH  052%=      5-min Rain = 0
KAHS 180045Z 02003KT 12/03 A3009 RMK A01 T01230026  RH  051%=      5-min Rain = 0
KAHS 180046Z 02003KT 12/03 A3009 RMK A01 T01230025  RH  051%=      5-min Rain = 0
KAHS 180047Z 02004KT 12/03 A3009 RMK A01 T01240025  RH  051%=      5-min Rain = 0
KAHS 180048Z 02004KT 12/03 A3009 RMK A01 T01240026  RH  051%=      5-min Rain = 0
KAHS 180049Z 02004KT 12/03 A3009 RMK A01 T01240025  RH  051%=      5-min Rain = 0
KAHS 180050Z 02004KT 12/03 A3009 RMK A01 T01240025  RH  051%=      5-min Rain = 0
KAHS 180051Z 02004KT 12/03 A3009 RMK A01 T01240025  RH  051%=      5-min Rain = 0
KAHS 180052Z 02004KT 12/03 A3009 RMK A01 T01240025  RH  051%=      5-min Rain = 0
KAHS 180053Z 02004KT 12/03 A3009 RMK A01 T01240025  RH  051%=      5-min Rain = 0
KAHS 180054Z 02004KT 12/03 A3009 RMK A01 T01240025  RH  051%=      5-min Rain = 0
KAHS 180055Z 02004KT 12/03 A3009 RMK A01 T01230025  RH  051%=      5-min Rain = 0
KAHS 180056Z 01004KT 12/03 A3009 RMK A01 T01230025  RH  051%=      5-min Rain = 0
KAHS 180057Z 01004KT 12/03 A3009 RMK A01 T01220025  RH  051%=      5-min Rain = 0
KAHS 180058Z 01005KT 12/03 A3009 RMK A01 T01220025  RH  052%=      5-min Rain = 0
KAHS 180059Z 01005KT 12/03 A3009 RMK A01 T01210025  RH  052%=      5-min Rain = 0
KAHS 180100Z 02005KT 12/03 A3009 RMK A01 T01210025  RH  052%=      5-min Rain = 0
KAHS 180101Z 02005KT 12/03 A3009 RMK A01 T01200025  RH  052%=      5-min Rain = 0
KAHS 180102Z 01004KT 12/03 A3009 RMK A01 T01210025  RH  052%=      5-min Rain = 0
KAHS 180103Z 01004KT 12/03 A3009 RMK A01 T01210025  RH  052%=      5-min Rain = 0
KAHS 180104Z 01004KT 12/03 A3009 RMK A01 T01210025  RH  052%=      5-min Rain = 0
KAHS 180105Z 01004KT 12/02 A3009 RMK A01 T01210024  RH  052%=      5-min Rain = 0
KAHS 180106Z 01004KT 12/02 A3009 RMK A01 T01210024  RH  052%=      5-min Rain = 0
KAHS 180107Z 01004KT 12/03 A3009 RMK A01 T01210025  RH  052%=      5-min Rain = 0
KAHS 180108Z 36004KT 12/03 A3009 RMK A01 T01200025  RH  052%=      5-min Rain = 0
KAHS 180109Z 36002KT 11/02 A3009 RMK A01 T01120024  RH  055%=      5-min Rain = 0
KAHS 180110Z 36002KT 11/03 A3009 RMK A01 T01050025  RH  058%=      5-min Rain = 0
KAHS 180111Z 36003KT 10/03 A3009 RMK A01 T01040026  RH  059%=      5-min Rain = 0
KAHS 180112Z 00002KT 10/03 A3009 RMK A01 T01030026  RH  059%=      5-min Rain = 0
KAHS 180113Z 36003KT 10/03 A3009 RMK A01 T01020026  RH  059%=      5-min Rain = 0
KAHS 180114Z 36003KT 10/03 A3009 RMK A01 T01030026  RH  059%=      5-min Rain = 0
KAHS 180115Z 35003KT 10/03 A3009 RMK A01 T01040025  RH  058%=      5-min Rain = 0
KAHS 180116Z 35003KT 11/03 A3009 RMK A01 T01050026  RH  058%=      5-min Rain = 0
KAHS 180117Z 35004KT 11/03 A3009 RMK A01 T01050025  RH  058%=      5-min Rain = 0
KAHS 180118Z 35004KT 11/03 A3009 RMK A01 T01060025  RH  057%=      5-min Rain = 0
KAHS 180119Z 35004KT 11/03 A3009 RMK A01 T01060025  RH  057%=      5-min Rain = 0
KAHS 180120Z 35004KT 11/03 A3009 RMK A01 T01060025  RH  057%=      5-min Rain = 0
KAHS 180121Z 35004KT 11/03 A3009 RMK A01 T01060026  RH  058%=      5-min Rain = 0
KAHS 180122Z 35005KT 11/03 A3009 RMK A01 T01070027  RH  058%=      5-min Rain = 0
KAHS 180123Z 36005KT 11/03 A3009 RMK A01 T01070027  RH  058%=      5-min Rain = 0
KAHS 180124Z 00005KT 11/03 A3009 RMK A01 T01060027  RH  058%=      5-min Rain = 0
KAHS 180125Z 35005KT 11/03 A3009 RMK A01 T01060027  RH  058%=      5-min Rain = 0
KAHS 180126Z 35005KT 11/03 A3009 RMK A01 T01060027  RH  058%=      5-min Rain = 0
KAHS 180127Z 35006KT 11/03 A3009 RMK A01 T01050027  RH  058%=      5-min Rain = 0
KAHS 180128Z 00006KT 11/03 A3009 RMK A01 T01050027  RH  059%=      5-min Rain = 0
KAHS 180129Z 00006KT 10/03 A3009 RMK A01 T01040027  RH  059%=      5-min Rain = 0
KAHS 180130Z 00006KT 10/03 A3009 RMK A01 T01040027  RH  059%=      5-min Rain = 0
KAHS 180131Z 00006KT 10/03 A3009 RMK A01 T01030027  RH  059%=      5-min Rain = 0
KAHS 180132Z 00006KT 10/03 A3009 RMK A01 T01030027  RH  060%=      5-min Rain = 0
KAHS 180133Z 00006KT 10/03 A3009 RMK A01 T01030028  RH  060%=      5-min Rain = 0
KAHS 180134Z 00006KT 10/03 A3009 RMK A01 T01030028  RH  060%=      5-min Rain = 0
KAHS 180135Z 00006KT 10/03 A3009 RMK A01 T01030028  RH  060%=      5-min Rain = 0
KAHS 180136Z 00006KT 10/03 A3009 RMK A01 T01030028  RH  060%=      5-min Rain = 0
KAHS 180137Z 00006KT 10/03 A3009 RMK A01 T01030028  RH  060%=      5-min Rain = 0
KAHS 180138Z 00006KT 10/03 A3009 RMK A01 T01030028  RH  060%=      5-min Rain = 0
KAHS 180139Z 01006KT 10/03 A3009 RMK A01 T01030029  RH  060%=      5-min Rain = 0
KAHS 180140Z 01006KT 10/03 A3009 RMK A01 T01030029  RH  060%=      5-min Rain = 0
KAHS 180141Z 01006KT 10/03 A3009 RMK A01 T01020029  RH  060%=      5-min Rain = 0
KAHS 180142Z 01006KT 10/03 A3009 RMK A01 T01020029  RH  060%=      5-min Rain = 0
KAHS 180143Z 01006KT 10/03 A3009 RMK A01 T01020029  RH  060%=      5-min Rain = 0
KAHS 180144Z 01006KT 10/03 A3009 RMK A01 T01020029  RH  060%=      5-min Rain = 0
KAHS 180145Z 01006KT 10/03 A3009 RMK A01 T01020028  RH  060%=      5-min Rain = 0
KAHS 180146Z 01006KT 10/03 A3009 RMK A01 T01020028  RH  060%=      5-min Rain = 0
KAHS 180147Z 01006KT 10/03 A3009 RMK A01 T01030028  RH  060%=      5-min Rain = 0
KAHS 180148Z 01005KT 10/03 A3009 RMK A01 T01030027  RH  059%=      5-min Rain = 0
KAHS 180149Z 01005KT 10/03 A301 RMK A01 T01030028  RH  059%=      5-min Rain = 0
KAHS 180150Z 01005KT 10/03 A301 RMK A01 T01040027  RH  059%=      5-min Rain = 0
KAHS 180151Z 01004KT 10/03 A301 RMK A01 T01040027  RH  059%=      5-min Rain = 0
KAHS 180152Z 01004KT 10/03 A301 RMK A01 T01040027  RH  059%=      5-min Rain = 0
KAHS 180153Z 00004KT 10/03 A301 RMK A01 T01040027  RH  059%=      5-min Rain = 0
KAHS 180154Z 00004KT 10/03 A301 RMK A01 T01040027  RH  059%=      5-min Rain = 0
KAHS 180155Z 00005KT 10/03 A301 RMK A01 T01040027  RH  059%=      5-min Rain = 0
KAHS 180156Z 01005KT 10/03 A301 RMK A01 T01040027  RH  059%=      5-min Rain = 0
KAHS 180157Z 01005KT 10/03 A301 RMK A01 T01040027  RH  059%=      5-min Rain = 0
KAHS 180158Z 01005KT 11/03 A301 RMK A01 T01050026  RH  058%=      5-min Rain = 0
KAHS 180159Z 01005KT 11/03 A301 RMK A01 T01050026  RH  058%=      5-min Rain = 0
KAHS 180200Z 01005KT 11/03 A301 RMK A01 T01060026  RH  058%=      5-min Rain = 0
KAHS 180201Z 00005KT 11/03 A301 RMK A01 T01060026  RH  058%=      5-min Rain = 0
KAHS 180202Z 00005KT 11/03 A301 RMK A01 T01060026  RH  058%=      5-min Rain = 0
KAHS 180203Z 00005KT 11/03 A301 RMK A01 T01060026  RH  058%=      5-min Rain = 0
KAHS 180204Z 00005KT 11/03 A301 RMK A01 T01050026  RH  058%=      5-min Rain = 0
KAHS 180205Z 01004KT 11/03 A301 RMK A01 T01050026  RH  058%=      5-min Rain = 0
KAHS 180206Z 01004KT 11/03 A301 RMK A01 T01050026  RH  058%=      5-min Rain = 0
KAHS 180207Z 01004KT 11/03 A301 RMK A01 T01050026  RH  058%=      5-min Rain = 0
KAHS 180208Z 01004KT 11/03 A301 RMK A01 T01050026  RH  058%=      5-min Rain = 0
KAHS 180209Z 01004KT 11/03 A301 RMK A01 T01050026  RH  058%=      5-min Rain = 0
KAHS 180210Z 00004KT 11/03 A301 RMK A01 T01050025  RH  058%=      5-min Rain = 0
KAHS 180211Z 00003KT 11/03 A301 RMK A01 T01050025  RH  058%=      5-min Rain = 0
KAHS 180212Z 00003KT 10/02 A301 RMK A01 T01020024  RH  058%=      5-min Rain = 0
KAHS 180213Z 35003KT 09/02 A301 RMK A01 T00920022  RH  061%=      5-min Rain = 0
KAHS 180214Z 35003KT 09/02 A301 RMK A01 T00860024  RH  065%=      5-min Rain = 0
KAHS 180215Z 35003KT 08/03 A301 RMK A01 T00840025  RH  066%=      5-min Rain = 0
KAHS 180216Z 35002KT 08/03 A301 RMK A01 T00830026  RH  067%=      5-min Rain = 0
KAHS 180217Z 35002KT 08/03 A301 RMK A01 T00820026  RH  068%=      5-min Rain = 0
KAHS 180218Z 36002KT 08/03 A301 RMK A01 T00820027  RH  068%=      5-min Rain = 0
KAHS 180219Z 00002KT 08/03 A301 RMK A01 T00820027  RH  068%=      5-min Rain = 0
KAHS 180220Z 00003KT 08/03 A301 RMK A01 T00840028  RH  068%=      5-min Rain = 0
KAHS 180221Z 00003KT 09/03 A301 RMK A01 T00850027  RH  067%=      5-min Rain = 0
KAHS 180222Z 01002KT 09/03 A301 RMK A01 T00870027  RH  066%=      5-min Rain = 0
KAHS 180223Z 01002KT 09/03 A301 RMK A01 T00880027  RH  065%=      5-min Rain = 0
KAHS 180224Z 01002KT 09/03 A301 RMK A01 T00900027  RH  064%=      5-min Rain = 0
KAHS 180225Z 01002KT 09/03 A301 RMK A01 T00910026  RH  064%=      5-min Rain = 0
KAHS 180226Z 01002KT 09/03 A301 RMK A01 T00910026  RH  064%=      5-min Rain = 0
KAHS 180227Z 36001KT 09/03 A301 RMK A01 T00900025  RH  064%=      5-min Rain = 0
KAHS 180228Z 00000KT 09/02 A301 RMK A01 T00880024  RH  064%=      5-min Rain = 0
KAHS 180229Z 35000KT 09/03 A301 RMK A01 T00870025  RH  065%=      5-min Rain = 0
KAHS 180230Z 00000KT 09/03 A301 RMK A01 T00860025  RH  065%=      5-min Rain = 0
KAHS 180231Z 27001KT 09/03 A3011 RMK A01 T00850025  RH  066%=      5-min Rain = 0
KAHS 180232Z 27001KT 08/02 A3011 RMK A01 T00830024  RH  066%=      5-min Rain = 0
KAHS 180233Z 27001KT 08/02 A3011 RMK A01 T00820024  RH  067%=      5-min Rain = 0
KAHS 180234Z 27001KT 08/02 A3011 RMK A01 T00810024  RH  067%=      5-min Rain = 0
KAHS 180235Z 30001KT 08/03 A3011 RMK A01 T00810025  RH  068%=      5-min Rain = 0
KAHS 180236Z 33001KT 08/03 A3011 RMK A01 T00810025  RH  068%=      5-min Rain = 0
KAHS 180237Z 33001KT 08/03 A3011 RMK A01 T00820025  RH  067%=      5-min Rain = 0
KAHS 180238Z 33001KT 08/03 A3011 RMK A01 T00830025  RH  067%=      5-min Rain = 0
KAHS 180239Z 33001KT 08/03 A3011 RMK A01 T00840025  RH  067%=      5-min Rain = 0
KAHS 180240Z 33001KT 09/03 A3011 RMK A01 T00850025  RH  066%=      5-min Rain = 0
KAHS 180241Z 33001KT 09/03 A3011 RMK A01 T00860025  RH  066%=      5-min Rain = 0
KAHS 180242Z 33001KT 09/03 A3011 RMK A01 T00860025  RH  065%=      5-min Rain = 0
KAHS 180243Z 33000KT 09/03 A3011 RMK A01 T00870025  RH  065%=      5-min Rain = 0
KAHS 180244Z 33000KT 09/03 A3011 RMK A01 T00880025  RH  065%=      5-min Rain = 0
KAHS 180245Z 00000KT 09/03 A3011 RMK A01 T00890026  RH  064%=      5-min Rain = 0
KAHS 180246Z 00000KT 09/03 A3011 RMK A01 T00910026  RH  064%=      5-min Rain = 0
KAHS 180247Z 00000KT 09/03 A3011 RMK A01 T00920026  RH  063%=      5-min Rain = 0
KAHS 180248Z 00000KT 09/03 A3011 RMK A01 T00940025  RH  062%=      5-min Rain = 0
KAHS 180249Z 00000KT 09/03 A3011 RMK A01 T00940025  RH  062%=      5-min Rain = 0
KAHS 180250Z 00000KT 09/03 A3011 RMK A01 T00940025  RH  062%=      5-min Rain = 0
KAHS 180251Z 19002KT 09/02 A3011 RMK A01 T00920024  RH  063%=      5-min Rain = 0
KAHS 180252Z 19004KT 09/02 A3011 RMK A01 T00870022  RH  063%=      5-min Rain = 0
KAHS 180253Z 19004KT 08/02 A3011 RMK A01 T00790019  RH  066%=      5-min Rain = 0
KAHS 180254Z 19004KT 07/02 A3011 RMK A01 T00720019  RH  069%=      5-min Rain = 0
KAHS 180255Z 19004KT 07/02 A3011 RMK A01 T00690024  RH  073%=      5-min Rain = 0
KAHS 180256Z 19005KT 07/03 A3011 RMK A01 T00690029  RH  076%=      5-min Rain = 0
KAHS 180257Z 19006KT 07/03 A3011 RMK A01 T00680032  RH  078%=      5-min Rain = 0
KAHS 180258Z 20006KT 07/03 A3011 RMK A01 T00670034  RH  080%=      5-min Rain = 0
KAHS 180259Z 20005KT 07/04 A3011 RMK A01 T00670036  RH  081%=      5-min Rain = 0
KAHS 180300Z 20005KT 07/04 A3011 RMK A01 T00670038  RH  082%=      5-min Rain = 0
KAHS 180301Z 21004KT 07/04 A3011 RMK A01 T00670038  RH  082%=      5-min Rain = 0
KAHS 180302Z 21004KT 07/04 A3011 RMK A01 T00670039  RH  082%=      5-min Rain = 0
KAHS 180303Z 22003KT 07/04 A3011 RMK A01 T00670040  RH  083%=      5-min Rain = 0
KAHS 180304Z 22003KT 07/04 A3011 RMK A01 T00680040  RH  083%=      5-min Rain = 0
KAHS 180305Z 23003KT 07/04 A3011 RMK A01 T00680040  RH  083%=      5-min Rain = 0
KAHS 180306Z 23002KT 07/04 A3011 RMK A01 T00680040  RH  082%=      5-min Rain = 0
KAHS 180307Z 22002KT 07/04 A3011 RMK A01 T00680040  RH  083%=      5-min Rain = 0
KAHS 180308Z 23001KT 07/04 A3011 RMK A01 T00680042  RH  083%=      5-min Rain = 0
KAHS 180309Z 23001KT 07/04 A3011 RMK A01 T00690043  RH  083%=      5-min Rain = 0
KAHS 180310Z 23001KT 07/04 A3011 RMK A01 T00690043  RH  083%=      5-min Rain = 0
KAHS 180311Z 23001KT 07/04 A3011 RMK A01 T00690043  RH  084%=      5-min Rain = 0
KAHS 180312Z 23001KT 07/04 A3011 RMK A01 T00690044  RH  084%=      5-min Rain = 0
KAHS 180313Z 23001KT 07/04 A3011 RMK A01 T00700044  RH  084%=      5-min Rain = 0
KAHS 180314Z 23001KT 07/04 A3011 RMK A01 T00700043  RH  083%=      5-min Rain = 0
KAHS 180315Z 23001KT 07/04 A3011 RMK A01 T00700042  RH  082%=      5-min Rain = 0
KAHS 180316Z 23001KT 07/04 A3011 RMK A01 T00700042  RH  082%=      5-min Rain = 0
KAHS 180317Z 23001KT 07/04 A3011 RMK A01 T00710041  RH  081%=      5-min Rain = 0
KAHS 180318Z 23002KT 07/04 A3011 RMK A01 T00720041  RH  081%=      5-min Rain = 0
KAHS 180319Z 23003KT 07/04 A3011 RMK A01 T00730040  RH  080%=      5-min Rain = 0
KAHS 180320Z 23003KT 07/04 A3011 RMK A01 T00720039  RH  079%=      5-min Rain = 0
KAHS 180321Z 23003KT 07/03 A3011 RMK A01 T00690034  RH  078%=      5-min Rain = 0
KAHS 180322Z 22004KT 07/03 A3011 RMK A01 T00650029  RH  078%=      5-min Rain = 0
KAHS 180323Z 22004KT 06/03 A3011 RMK A01 T00620029  RH  079%=      5-min Rain = 0
KAHS 180324Z 22004KT 06/03 A3011 RMK A01 T00620030  RH  080%=      5-min Rain = 0
KAHS 180325Z 21004KT 06/03 A3011 RMK A01 T00600030  RH  081%=      5-min Rain = 0
KAHS 180326Z 21004KT 06/03 A3011 RMK A01 T00590030  RH  082%=      5-min Rain = 0
KAHS 180327Z 21005KT 06/03 A3011 RMK A01 T00590032  RH  083%=      5-min Rain = 0
KAHS 180328Z 21004KT 06/03 A3011 RMK A01 T00590032  RH  083%=      5-min Rain = 0
KAHS 180329Z 22004KT 06/03 A3011 RMK A01 T00600034  RH  083%=      5-min Rain = 0
KAHS 180330Z 21003KT 06/04 A3011 RMK A01 T00610035  RH  084%=      5-min Rain = 0
KAHS 180331Z 22004KT 06/04 A3011 RMK A01 T00620036  RH  083%=      5-min Rain = 0
KAHS 180332Z 23003KT 06/04 A3011 RMK A01 T00640037  RH  083%=      5-min Rain = 0
KAHS 180333Z 23003KT 07/04 A3011 RMK A01 T00660038  RH  082%=      5-min Rain = 0
KAHS 180334Z 24003KT 07/04 A3011 RMK A01 T00680038  RH  081%=      5-min Rain = 0
KAHS 180335Z 24003KT 07/04 A3011 RMK A01 T00690037  RH  080%=      5-min Rain = 0
KAHS 180336Z 24003KT 07/04 A3011 RMK A01 T00700036  RH  079%=      5-min Rain = 0
KAHS 180337Z 24003KT 07/04 A3011 RMK A01 T00710037  RH  078%=      5-min Rain = 0
KAHS 180338Z 24003KT 07/04 A3011 RMK A01 T00730036  RH  077%=      5-min Rain = 0
KAHS 180339Z 24003KT 07/04 A3011 RMK A01 T00740036  RH  076%=      5-min Rain = 0
KAHS 180340Z 23003KT 08/04 A3011 RMK A01 T00750035  RH  076%=      5-min Rain = 0
KAHS 180341Z 23003KT 08/03 A3011 RMK A01 T00750034  RH  075%=      5-min Rain = 0
KAHS 180342Z 23003KT 08/03 A3011 RMK A01 T00750034  RH  075%=      5-min Rain = 0
KAHS 180343Z 23003KT 08/03 A3011 RMK A01 T00750034  RH  075%=      5-min Rain = 0
KAHS 180344Z 23003KT 08/04 A3011 RMK A01 T00760035  RH  075%=      5-min Rain = 0
KAHS 180345Z 22003KT 08/04 A3011 RMK A01 T00770035  RH  075%=      5-min Rain = 0
KAHS 180346Z 23003KT 08/04 A3011 RMK A01 T00770035  RH  074%=      5-min Rain = 0
KAHS 180347Z 23003KT 08/03 A3011 RMK A01 T00770034  RH  074%=      5-min Rain = 0
KAHS 180348Z 23003KT 08/03 A3011 RMK A01 T00770033  RH  074%=      5-min Rain = 0
KAHS 180349Z 22004KT 08/03 A3011 RMK A01 T00770033  RH  074%=      5-min Rain = 0
KAHS 180350Z 22004KT 08/03 A3011 RMK A01 T00770033  RH  074%=      5-min Rain = 0
KAHS 180351Z 22004KT 08/03 A301 RMK A01 T00770032  RH  074%=      5-min Rain = 0
KAHS 180352Z 22004KT 08/03 A301 RMK A01 T00760032  RH  073%=      5-min Rain = 0
KAHS 180353Z 21004KT 08/03 A301 RMK A01 T00760032  RH  074%=      5-min Rain = 0
KAHS 180354Z 21004KT 08/03 A301 RMK A01 T00750031  RH  074%=      5-min Rain = 0
KAHS 180355Z 21004KT 08/03 A301 RMK A01 T00750031  RH  074%=      5-min Rain = 0
KAHS 180356Z 22005KT 08/03 A301 RMK A01 T00750031  RH  074%=      5-min Rain = 0
KAHS 180357Z 22005KT 07/03 A301 RMK A01 T00740030  RH  074%=      5-min Rain = 0
KAHS 180358Z 22005KT 07/03 A301 RMK A01 T00730030  RH  074%=      5-min Rain = 0
KAHS 180359Z 22005KT 07/03 A301 RMK A01 T00710030  RH  075%=      5-min Rain = 0
KAHS 180400Z 22005KT 07/03 A301 RMK A01 T00690028  RH  075%=      5-min Rain = 0
KAHS 180401Z 22005KT 07/03 A301 RMK A01 T00660026  RH  076%=      5-min Rain = 0
KAHS 180402Z 22005KT 06/03 A301 RMK A01 T00630026  RH  077%=      5-min Rain = 0
KAHS 180403Z 22005KT 06/03 A301 RMK A01 T00620027  RH  078%=      5-min Rain = 0
KAHS 180404Z 22004KT 06/03 A301 RMK A01 T00620028  RH  079%=      5-min Rain = 0
KAHS 180405Z 22004KT 06/03 A301 RMK A01 T00620030  RH  080%=      5-min Rain = 0
KAHS 180406Z 22004KT 06/03 A301 RMK A01 T00620031  RH  081%=      5-min Rain = 0
KAHS 180407Z 22004KT 06/03 A301 RMK A01 T00630033  RH  081%=      5-min Rain = 0
KAHS 180408Z 22004KT 06/03 A301 RMK A01 T00630033  RH  081%=      5-min Rain = 0
KAHS 180409Z 22004KT 06/03 A301 RMK A01 T00640033  RH  081%=      5-min Rain = 0
KAHS 180410Z 21005KT 06/03 A301 RMK A01 T00640033  RH  081%=      5-min Rain = 0
KAHS 180411Z 21005KT 06/03 A301 RMK A01 T00640033  RH  080%=      5-min Rain = 0
KAHS 180412Z 22005KT 06/03 A301 RMK A01 T00640033  RH  080%=      5-min Rain = 0
KAHS 180413Z 22005KT 06/03 A301 RMK A01 T00640032  RH  080%=      5-min Rain = 0
KAHS 180414Z 22004KT 06/03 A301 RMK A01 T00630032  RH  081%=      5-min Rain = 0
KAHS 180415Z 23004KT 06/03 A301 RMK A01 T00630032  RH  081%=      5-min Rain = 0
KAHS 180416Z 24004KT 06/03 A301 RMK A01 T00630032  RH  081%=      5-min Rain = 0
KAHS 180417Z 24004KT 06/03 A301 RMK A01 T00620032  RH  081%=      5-min Rain = 0
KAHS 180418Z 24003KT 06/03 A301 RMK A01 T00620031  RH  081%=      5-min Rain = 0
KAHS 180419Z 24003KT 06/03 A301 RMK A01 T00610031  RH  081%=      5-min Rain = 0
KAHS 180420Z 24003KT 06/03 A301 RMK A01 T00620032  RH  081%=      5-min Rain = 0
KAHS 180421Z 24003KT 06/03 A301 RMK A01 T00630034  RH  082%=      5-min Rain = 0
KAHS 180422Z 23003KT 06/03 A301 RMK A01 T00640034  RH  082%=      5-min Rain = 0
KAHS 180423Z 23003KT 07/04 A301 RMK A01 T00650035  RH  081%=      5-min Rain = 0
KAHS 180424Z 22002KT 07/04 A301 RMK A01 T00650035  RH  081%=      5-min Rain = 0
KAHS 180425Z 22002KT 07/03 A301 RMK A01 T00650034  RH  081%=      5-min Rain = 0
KAHS 180426Z 22002KT 06/03 A3009 RMK A01 T00640033  RH  080%=      5-min Rain = 0
KAHS 180427Z 22002KT 06/03 A3009 RMK A01 T00640033  RH  081%=      5-min Rain = 0
KAHS 180428Z 22003KT 07/04 A3009 RMK A01 T00650035  RH  081%=      5-min Rain = 0
KAHS 180429Z 22003KT 07/04 A3009 RMK A01 T00650036  RH  082%=      5-min Rain = 0
KAHS 180430Z 22003KT 07/04 A3009 RMK A01 T00650036  RH  081%=      5-min Rain = 0
KAHS 180431Z 22003KT 07/04 A3009 RMK A01 T00650035  RH  081%=      5-min Rain = 0
KAHS 180432Z 22003KT 07/04 A301 RMK A01 T00650035  RH  081%=      5-min Rain = 0
KAHS 180433Z 22003KT 07/04 A301 RMK A01 T00650035  RH  081%=      5-min Rain = 0
KAHS 180434Z 22002KT 07/04 A301 RMK A01 T00650035  RH  082%=      5-min Rain = 0
KAHS 180435Z 22002KT 07/04 A3009 RMK A01 T00650036  RH  082%=      5-min Rain = 0
KAHS 180436Z 22002KT 07/04 A3009 RMK A01 T00650037  RH  082%=      5-min Rain = 0
KAHS 180437Z 22002KT 07/04 A3009 RMK A01 T00650037  RH  082%=      5-min Rain = 0
KAHS 180438Z 22002KT 07/04 A3009 RMK A01 T00660038  RH  082%=      5-min Rain = 0
KAHS 180439Z 23002KT 07/04 A3009 RMK A01 T00660037  RH  082%=      5-min Rain = 0
KAHS 180440Z 23002KT 07/04 A3009 RMK A01 T00670036  RH  081%=      5-min Rain = 0
KAHS 180441Z 23002KT 07/04 A3009 RMK A01 T00670035  RH  080%=      5-min Rain = 0
KAHS 180442Z 23003KT 07/03 A3009 RMK A01 T00670033  RH  079%=      5-min Rain = 0
KAHS 180443Z 23003KT 07/03 A3009 RMK A01 T00670032  RH  078%=      5-min Rain = 0
KAHS 180444Z 22003KT 07/03 A3009 RMK A01 T00670032  RH  078%=      5-min Rain = 0
KAHS 180445Z 22003KT 07/03 A3009 RMK A01 T00680032  RH  078%=      5-min Rain = 0
KAHS 180446Z 22003KT 07/03 A3009 RMK A01 T00680032  RH  078%=      5-min Rain = 0
KAHS 180447Z 22003KT 07/03 A3009 RMK A01 T00690032  RH  077%=      5-min Rain = 0
KAHS 180448Z 22002KT 07/03 A3009 RMK A01 T00690031  RH  077%=      5-min Rain = 0
KAHS 180449Z 22002KT 07/03 A3009 RMK A01 T00690031  RH  076%=      5-min Rain = 0
KAHS 180450Z 22002KT 07/03 A3009 RMK A01 T00700031  RH  077%=      5-min Rain = 0
KAHS 180451Z 23002KT 07/03 A3009 RMK A01 T00700032  RH  077%=      5-min Rain = 0
KAHS 180452Z 24002KT 07/03 A3009 RMK A01 T00710032  RH  076%=      5-min Rain = 0
KAHS 180453Z 25002KT 07/03 A3009 RMK A01 T00710032  RH  076%=      5-min Rain = 0
KAHS 180454Z 25002KT 07/03 A3009 RMK A01 T00710032  RH  076%=      5-min Rain = 0
KAHS 180455Z 25003KT 07/03 A3009 RMK A01 T00700031  RH  076%=      5-min Rain = 0
KAHS 180456Z 25003KT 07/03 A3009 RMK A01 T00700031  RH  076%=      5-min Rain = 0
KAHS 180457Z 24003KT 07/03 A3009 RMK A01 T00700031  RH  076%=      5-min Rain = 0
KAHS 180458Z 24003KT 07/03 A3009 RMK A01 T00710031  RH  076%=      5-min Rain = 0
KAHS 180459Z 24003KT 07/03 A3009 RMK A01 T00720031  RH  075%=      5-min Rain = 0
KAHS 180500Z 23003KT 07/03 A3009 RMK A01 T00730031  RH  075%=      5-min Rain = 0
KAHS 180501Z 23003KT 07/03 A3009 RMK A01 T00740031  RH  074%=      5-min Rain = 0
KAHS 180502Z 23004KT 08/03 A3009 RMK A01 T00750031  RH  074%=      5-min Rain = 0
KAHS 180503Z 23003KT 08/03 A3009 RMK A01 T00750030  RH  073%=      5-min Rain = 0
KAHS 180504Z 23003KT 08/03 A3009 RMK A01 T00750030  RH  073%=      5-min Rain = 0
KAHS 180505Z 23003KT 08/03 A3009 RMK A01 T00760031  RH  073%=      5-min Rain = 0
KAHS 180506Z 23003KT 08/03 A3009 RMK A01 T00770031  RH  073%=      5-min Rain = 0
KAHS 180507Z 23003KT 08/03 A3009 RMK A01 T00780030  RH  072%=      5-min Rain = 0
KAHS 180508Z 23003KT 08/03 A3009 RMK A01 T00780030  RH  072%=      5-min Rain = 0
KAHS 180509Z 23004KT 08/03 A3009 RMK A01 T00790030  RH  071%=      5-min Rain = 0
KAHS 180510Z 23004KT 08/03 A3009 RMK A01 T00790030  RH  071%=      5-min Rain = 0
KAHS 180511Z 23004KT 08/03 A3009 RMK A01 T00790029  RH  071%=      5-min Rain = 0
KAHS 180512Z 23005KT 08/03 A3009 RMK A01 T00790029  RH  071%=      5-min Rain = 0
KAHS 180513Z 23005KT 08/03 A3009 RMK A01 T00780028  RH  071%=      5-min Rain = 0
KAHS 180514Z 23005KT 08/03 A3009 RMK A01 T00770027  RH  071%=      5-min Rain = 0
KAHS 180515Z 23004KT 08/03 A3009 RMK A01 T00760027  RH  071%=      5-min Rain = 0
KAHS 180516Z 24005KT 08/03 A3009 RMK A01 T00750028  RH  072%=      5-min Rain = 0
KAHS 180517Z 24005KT 08/03 A3009 RMK A01 T00750028  RH  072%=      5-min Rain = 0
KAHS 180518Z 24004KT 08/03 A3009 RMK A01 T00750027  RH  072%=      5-min Rain = 0
KAHS 180519Z 24004KT 07/03 A3009 RMK A01 T00740027  RH  072%=      5-min Rain = 0
KAHS 180520Z 24004KT 07/03 A3008 RMK A01 T00740027  RH  072%=      5-min Rain = 0
KAHS 180521Z 24004KT 07/03 A3008 RMK A01 T00740027  RH  072%=      5-min Rain = 0
KAHS 180522Z 25004KT 07/03 A3008 RMK A01 T00740026  RH  072%=      5-min Rain = 0
KAHS 180523Z 26004KT 07/03 A3008 RMK A01 T00740026  RH  072%=      5-min Rain = 0
KAHS 180524Z 26005KT 08/03 A3008 RMK A01 T00750026  RH  071%=      5-min Rain = 0
KAHS 180525Z 26005KT 08/03 A3008 RMK A01 T00750026  RH  071%=      5-min Rain = 0
KAHS 180526Z 26005KT 08/03 A3008 RMK A01 T00750026  RH  071%=      5-min Rain = 0
KAHS 180527Z 26005KT 08/03 A3008 RMK A01 T00750025  RH  071%=      5-min Rain = 0
KAHS 180528Z 26005KT 08/03 A3008 RMK A01 T00750025  RH  071%=      5-min Rain = 0
KAHS 180529Z 26005KT 08/03 A3008 RMK A01 T00750025  RH  071%=      5-min Rain = 0
KAHS 180530Z 26005KT 07/03 A3009 RMK A01 T00740025  RH  071%=      5-min Rain = 0
KAHS 180531Z 26005KT 07/03 A3009 RMK A01 T00740025  RH  071%=      5-min Rain = 0
KAHS 180532Z 26005KT 07/03 A3009 RMK A01 T00740025  RH  071%=      5-min Rain = 0
KAHS 180533Z 26005KT 07/02 A3009 RMK A01 T00730024  RH  071%=      5-min Rain = 0
KAHS 180534Z 26005KT 07/02 A3009 RMK A01 T00730024  RH  071%=      5-min Rain = 0
KAHS 180535Z 26005KT 07/02 A3009 RMK A01 T00730024  RH  071%=      5-min Rain = 0
KAHS 180536Z 26005KT 07/02 A3009 RMK A01 T00720024  RH  072%=      5-min Rain = 0
KAHS 180537Z 27005KT 07/02 A3008 RMK A01 T00710024  RH  072%=      5-min Rain = 0
KAHS 180538Z 27005KT 07/02 A3008 RMK A01 T00710024  RH  072%=      5-min Rain = 0
KAHS 180539Z 27005KT 07/02 A3008 RMK A01 T00690023  RH  072%=      5-min Rain = 0
KAHS 180540Z 27005KT 07/02 A3008 RMK A01 T00680023  RH  073%=      5-min Rain = 0
KAHS 180541Z 28005KT 07/02 A3008 RMK A01 T00680023  RH  073%=      5-min Rain = 0
KAHS 180542Z 28005KT 07/02 A3008 RMK A01 T00670024  RH  074%=      5-min Rain = 0
KAHS 180543Z 28005KT 07/02 A3008 RMK A01 T00670024  RH  074%=      5-min Rain = 0
KAHS 180544Z 27005KT 07/02 A3008 RMK A01 T00660024  RH  074%=      5-min Rain = 0
KAHS 180545Z 27005KT 07/02 A3008 RMK A01 T00660024  RH  074%=      5-min Rain = 0
KAHS 180546Z 26005KT 07/02 A3008 RMK A01 T00660024  RH  075%=      5-min Rain = 0
KAHS 180547Z 26005KT 07/02 A3008 RMK A01 T00650024  RH  075%=      5-min Rain = 0
KAHS 180548Z 26005KT 07/02 A3008 RMK A01 T00650024  RH  075%=      5-min Rain = 0
KAHS 180549Z 27005KT 06/02 A3008 RMK A01 T00640024  RH  075%=      5-min Rain = 0
KAHS 180550Z 27005KT 06/02 A3008 RMK A01 T00630023  RH  075%=      5-min Rain = 0
KAHS 180551Z 27006KT 06/02 A3008 RMK A01 T00620023  RH  076%=      5-min Rain = 0
KAHS 180552Z 27006KT 06/02 A3008 RMK A01 T00610023  RH  076%=      5-min Rain = 0
KAHS 180553Z 27005KT 06/02 A3008 RMK A01 T00610023  RH  077%=      5-min Rain = 0
KAHS 180554Z 27005KT 06/02 A3008 RMK A01 T00600023  RH  077%=      5-min Rain = 0
KAHS 180555Z 27005KT 06/02 A3008 RMK A01 T00600024  RH  077%=      5-min Rain = 0
KAHS 180556Z 27005KT 06/02 A3008 RMK A01 T00610024  RH  077%=      5-min Rain = 0
KAHS 180557Z 27005KT 06/02 A3008 RMK A01 T00610024  RH  077%=      5-min Rain = 0
KAHS 180558Z 27006KT 06/02 A3008 RMK A01 T00610023  RH  077%=      5-min Rain = 0
KAHS 180559Z 27005KT 06/02 A3008 RMK A01 T00610023  RH  077%=      5-min Rain = 0

Page generated in 0.0706 seconds.